Observation data for Weinert on 05/26/2019      Previous  Date  Next       Current Mesonet Observations  Soil Data  Daily Summary Page  Observations in Plain Language
KWE1 260500Z 13008KT 24/20 A2994 RMK A01 T02430203  RH  078%=      5-min Rain = 0
KWE1 260501Z 13009KT 24/20 A2994 RMK A01 T02420203  RH  079%=      5-min Rain = 0
KWE1 260502Z 13009KT 24/20 A2994 RMK A01 T02420203  RH  079%=      5-min Rain = 0
KWE1 260503Z 13009KT 24/20 A2994 RMK A01 T02420203  RH  079%=      5-min Rain = 0
KWE1 260504Z 13009KT 24/20 A2994 RMK A01 T02410202  RH  079%=      5-min Rain = 0
KWE1 260505Z 13009KT 24/20 A2994 RMK A01 T02410203  RH  079%=      5-min Rain = 0
KWE1 260506Z 13010KT 24/20 A2994 RMK A01 T02410203  RH  079%=      5-min Rain = 0
KWE1 260507Z 13010KT 24/20 A2994 RMK A01 T02400202  RH  079%=      5-min Rain = 0
KWE1 260508Z 14009KT 24/20 A2994 RMK A01 T02410202  RH  079%=      5-min Rain = 0
KWE1 260509Z 14010KT 24/20 A2994 RMK A01 T02400202  RH  079%=      5-min Rain = 0
KWE1 260510Z 13011KT 24/20 A2994 RMK A01 T02400202  RH  079%=      5-min Rain = 0
KWE1 260511Z 13010KT 24/20 A2994 RMK A01 T02400202  RH  079%=      5-min Rain = 0
KWE1 260512Z 13009KT 24/20 A2994 RMK A01 T02410202  RH  079%=      5-min Rain = 0
KWE1 260513Z 14009G15KT 24/20 A2994 RMK A01 T02400202  RH  079%=      5-min Rain = 0
KWE1 260514Z 14011KT 24/20 A2994 RMK A01 T02400202  RH  079%=      5-min Rain = 0
KWE1 260515Z 13010KT 24/20 A2994 RMK A01 T02400202  RH  079%=      5-min Rain = 0
KWE1 260516Z 14011KT 24/20 A2994 RMK A01 T02410202  RH  079%=      5-min Rain = 0
KWE1 260517Z 14009KT 24/20 A2994 RMK A01 T02410202  RH  079%=      5-min Rain = 0
KWE1 260518Z 14008KT 24/20 A2994 RMK A01 T02410202  RH  079%=      5-min Rain = 0
KWE1 260519Z 14009KT 24/20 A2994 RMK A01 T02400202  RH  079%=      5-min Rain = 0
KWE1 260520Z 14010KT 24/20 A2994 RMK A01 T02400202  RH  080%=      5-min Rain = 0
KWE1 260521Z 14010KT 24/20 A2994 RMK A01 T02390202  RH  079%=      5-min Rain = 0
KWE1 260522Z 14010KT 24/20 A2994 RMK A01 T02400202  RH  079%=      5-min Rain = 0
KWE1 260523Z 14009KT 24/20 A2994 RMK A01 T02400202  RH  079%=      5-min Rain = 0
KWE1 260524Z 13010KT 24/20 A2994 RMK A01 T02400202  RH  079%=      5-min Rain = 0
KWE1 260525Z 13011KT 24/20 A2994 RMK A01 T02400202  RH  079%=      5-min Rain = 0
KWE1 260526Z 14011KT 24/20 A2994 RMK A01 T02400201  RH  079%=      5-min Rain = 0
KWE1 260527Z 14012KT 24/20 A2994 RMK A01 T02410201  RH  079%=      5-min Rain = 0
KWE1 260528Z 13011KT 24/20 A2994 RMK A01 T02410201  RH  078%=      5-min Rain = 0
KWE1 260529Z 13010KT 24/20 A2994 RMK A01 T02420201  RH  078%=      5-min Rain = 0
KWE1 260530Z 14010KT 24/20 A2994 RMK A01 T02420201  RH  078%=      5-min Rain = 0
KWE1 260531Z 13010KT 24/20 A2994 RMK A01 T02420201  RH  078%=      5-min Rain = 0
KWE1 260532Z 13009KT 24/20 A2994 RMK A01 T02410201  RH  078%=      5-min Rain = 0
KWE1 260533Z 13008KT 24/20 A2994 RMK A01 T02410201  RH  079%=      5-min Rain = 0
KWE1 260534Z 14008KT 24/20 A2994 RMK A01 T02400201  RH  079%=      5-min Rain = 0
KWE1 260535Z 14008KT 24/20 A2994 RMK A01 T02390201  RH  079%=      5-min Rain = 0
KWE1 260536Z 14010KT 24/20 A2994 RMK A01 T02390201  RH  079%=      5-min Rain = 0
KWE1 260537Z 14010KT 24/20 A2994 RMK A01 T02390201  RH  079%=      5-min Rain = 0
KWE1 260538Z 13009KT 24/20 A2994 RMK A01 T02400201  RH  079%=      5-min Rain = 0
KWE1 260539Z 14008KT 24/20 A2994 RMK A01 T02400201  RH  079%=      5-min Rain = 0
KWE1 260540Z 14008KT 24/20 A2994 RMK A01 T02400201  RH  079%=      5-min Rain = 0
KWE1 260541Z 14007KT 24/20 A2994 RMK A01 T02390201  RH  079%=      5-min Rain = 0
KWE1 260542Z 14007KT 24/20 A2994 RMK A01 T02390201  RH  079%=      5-min Rain = 0
KWE1 260543Z 14010KT 24/20 A2994 RMK A01 T02380201  RH  079%=      5-min Rain = 0
KWE1 260544Z 14009KT 24/20 A2994 RMK A01 T02380200  RH  079%=      5-min Rain = 0
KWE1 260545Z 14011KT 24/20 A2994 RMK A01 T02390200  RH  079%=      5-min Rain = 0
KWE1 260546Z 14010KT 24/20 A2994 RMK A01 T02390200  RH  079%=      5-min Rain = 0
KWE1 260547Z 14008KT 24/20 A2994 RMK A01 T02390201  RH  079%=      5-min Rain = 0
KWE1 260548Z 14009KT 24/20 A2994 RMK A01 T02390201  RH  079%=      5-min Rain = 0
KWE1 260549Z 14009KT 24/20 A2994 RMK A01 T02390201  RH  079%=      5-min Rain = 0
KWE1 260550Z 14011KT 24/20 A2994 RMK A01 T02390201  RH  079%=      5-min Rain = 0
KWE1 260551Z 14010KT 24/20 A2994 RMK A01 T02390200  RH  079%=      5-min Rain = 0
KWE1 260552Z 14008KT 24/20 A2994 RMK A01 T02400200  RH  078%=      5-min Rain = 0
KWE1 260553Z 14009KT 24/20 A2994 RMK A01 T02400200  RH  078%=      5-min Rain = 0
KWE1 260554Z 14009KT 24/20 A2994 RMK A01 T02410201  RH  078%=      5-min Rain = 0
KWE1 260555Z 14009KT 24/20 A2994 RMK A01 T02400200  RH  079%=      5-min Rain = 0
KWE1 260556Z 14009KT 24/20 A2994 RMK A01 T02390200  RH  079%=      5-min Rain = 0
KWE1 260557Z 14008KT 24/20 A2995 RMK A01 T02390201  RH  079%=      5-min Rain = 0
KWE1 260558Z 14010KT 24/20 A2994 RMK A01 T02380201  RH  080%=      5-min Rain = 0
KWE1 260559Z 14011KT 24/20 A2994 RMK A01 T02380200  RH  079%=      5-min Rain = 0
KWE1 260600Z 14010KT 24/20 A2994 RMK A01 T02380200  RH  079%=      5-min Rain = 0
KWE1 260601Z 14009KT 24/20 A2994 RMK A01 T02380200  RH  079%=      5-min Rain = 0
KWE1 260602Z 14009KT 24/20 A2994 RMK A01 T02380200  RH  079%=      5-min Rain = 0
KWE1 260603Z 14010KT 24/20 A2994 RMK A01 T02380200  RH  079%=      5-min Rain = 0
KWE1 260604Z 14011KT 24/20 A2994 RMK A01 T02380200  RH  079%=      5-min Rain = 0
KWE1 260605Z 13009KT 24/20 A2994 RMK A01 T02380200  RH  079%=      5-min Rain = 0
KWE1 260606Z 14011KT 24/20 A2994 RMK A01 T02380200  RH  079%=      5-min Rain = 0
KWE1 260607Z 14010KT 24/20 A2994 RMK A01 T02380200  RH  079%=      5-min Rain = 0
KWE1 260608Z 14010KT 24/20 A2994 RMK A01 T02380200  RH  079%=      5-min Rain = 0
KWE1 260609Z 14008KT 24/20 A2994 RMK A01 T02380201  RH  080%=      5-min Rain = 0
KWE1 260610Z 14008KT 24/20 A2994 RMK A01 T02370200  RH  080%=      5-min Rain = 0
KWE1 260611Z 14011KT 24/20 A2994 RMK A01 T02360200  RH  080%=      5-min Rain = 0
KWE1 260612Z 14010KT 24/20 A2994 RMK A01 T02360200  RH  080%=      5-min Rain = 0
KWE1 260613Z 15010KT 24/20 A2994 RMK A01 T02370200  RH  080%=      5-min Rain = 0
KWE1 260614Z 14009KT 24/20 A2994 RMK A01 T02370200  RH  080%=      5-min Rain = 0
KWE1 260615Z 14008KT 24/20 A2994 RMK A01 T02370200  RH  080%=      5-min Rain = 0
KWE1 260616Z 14012KT 24/20 A2994 RMK A01 T02360200  RH  080%=      5-min Rain = 0
KWE1 260617Z 14010KT 24/20 A2994 RMK A01 T02360200  RH  080%=      5-min Rain = 0
KWE1 260618Z 14010KT 24/20 A2994 RMK A01 T02370200  RH  080%=      5-min Rain = 0
KWE1 260619Z 14010KT 24/20 A2994 RMK A01 T02370200  RH  080%=      5-min Rain = 0
KWE1 260620Z 14009KT 24/20 A2995 RMK A01 T02370200  RH  080%=      5-min Rain = 0
KWE1 260621Z 14010KT 24/20 A2995 RMK A01 T02370200  RH  080%=      5-min Rain = 0
KWE1 260622Z 14010KT 24/20 A2995 RMK A01 T02360200  RH  080%=      5-min Rain = 0
KWE1 260623Z 14010KT 24/20 A2995 RMK A01 T02370200  RH  080%=      5-min Rain = 0
KWE1 260624Z 14010KT 24/20 A2995 RMK A01 T02370200  RH  080%=      5-min Rain = 0
KWE1 260625Z 14009KT 24/20 A2995 RMK A01 T02370200  RH  080%=      5-min Rain = 0
KWE1 260626Z 14009KT 24/20 A2995 RMK A01 T02360200  RH  080%=      5-min Rain = 0
KWE1 260627Z 14011KT 24/20 A2995 RMK A01 T02360200  RH  080%=      5-min Rain = 0
KWE1 260628Z 14011KT 24/20 A2995 RMK A01 T02360199  RH  080%=      5-min Rain = 0
KWE1 260629Z 14010KT 24/20 A2995 RMK A01 T02370199  RH  079%=      5-min Rain = 0
KWE1 260630Z 14010KT 24/20 A2995 RMK A01 T02380200  RH  079%=      5-min Rain = 0
KWE1 260631Z 14010KT 24/20 A2995 RMK A01 T02380200  RH  079%=      5-min Rain = 0
KWE1 260632Z 14012KT 24/20 A2995 RMK A01 T02370200  RH  079%=      5-min Rain = 0
KWE1 260633Z 14010KT 24/20 A2995 RMK A01 T02370200  RH  079%=      5-min Rain = 0
KWE1 260634Z 14011KT 24/20 A2995 RMK A01 T02370200  RH  080%=      5-min Rain = 0
KWE1 260635Z 14012KT 24/20 A2995 RMK A01 T02380200  RH  080%=      5-min Rain = 0
KWE1 260636Z 14009KT 24/20 A2995 RMK A01 T02370200  RH  080%=      5-min Rain = 0
KWE1 260637Z 14010KT 24/20 A2995 RMK A01 T02360200  RH  080%=      5-min Rain = 0
KWE1 260638Z 14009KT 24/20 A2995 RMK A01 T02360200  RH  080%=      5-min Rain = 0
KWE1 260639Z 14009KT 24/20 A2995 RMK A01 T02350200  RH  080%=      5-min Rain = 0
KWE1 260640Z 14010KT 24/20 A2995 RMK A01 T02350200  RH  080%=      5-min Rain = 0
KWE1 260641Z 14009KT 24/20 A2995 RMK A01 T02350200  RH  080%=      5-min Rain = 0
KWE1 260642Z 14010KT 24/20 A2995 RMK A01 T02350200  RH  080%=      5-min Rain = 0
KWE1 260643Z 14012KT 24/20 A2995 RMK A01 T02350199  RH  080%=      5-min Rain = 0
KWE1 260644Z 14010KT 24/20 A2995 RMK A01 T02360199  RH  080%=      5-min Rain = 0
KWE1 260645Z 14010KT 24/20 A2995 RMK A01 T02360199  RH  080%=      5-min Rain = 0
KWE1 260646Z 14010KT 24/20 A2995 RMK A01 T02360199  RH  080%=      5-min Rain = 0
KWE1 260647Z 14011KT 24/20 A2995 RMK A01 T02360200  RH  080%=      5-min Rain = 0
KWE1 260648Z 14011KT 24/20 A2995 RMK A01 T02360200  RH  080%=      5-min Rain = 0
KWE1 260649Z 15011KT 24/20 A2995 RMK A01 T02350199  RH  080%=      5-min Rain = 0
KWE1 260650Z 14010KT 24/20 A2995 RMK A01 T02350199  RH  080%=      5-min Rain = 0
KWE1 260651Z 14011KT 24/20 A2995 RMK A01 T02350199  RH  080%=      5-min Rain = 0
KWE1 260652Z 14010KT 24/20 A2995 RMK A01 T02350199  RH  080%=      5-min Rain = 0
KWE1 260653Z 14012KT 24/20 A2995 RMK A01 T02360199  RH  080%=      5-min Rain = 0
KWE1 260654Z 14011KT 24/20 A2995 RMK A01 T02360199  RH  080%=      5-min Rain = 0
KWE1 260655Z 14010KT 24/20 A2995 RMK A01 T02360199  RH  080%=      5-min Rain = 0
KWE1 260656Z 14010KT 24/20 A2995 RMK A01 T02360199  RH  080%=      5-min Rain = 0
KWE1 260657Z 13011KT 24/20 A2995 RMK A01 T02360199  RH  080%=      5-min Rain = 0
KWE1 260658Z 14009KT 24/20 A2995 RMK A01 T02350199  RH  080%=      5-min Rain = 0
KWE1 260659Z 13008KT 24/20 A2995 RMK A01 T02350199  RH  080%=      5-min Rain = 0
KWE1 260700Z 13008KT 23/20 A2995 RMK A01 T02340199  RH  081%=      5-min Rain = 0
KWE1 260701Z 14011KT 23/20 A2995 RMK A01 T02330199  RH  081%=      5-min Rain = 0
KWE1 260702Z 14009KT 23/20 A2995 RMK A01 T02330198  RH  081%=      5-min Rain = 0
KWE1 260703Z 14008KT 23/20 A2995 RMK A01 T02330199  RH  081%=      5-min Rain = 0
KWE1 260704Z 13008KT 23/20 A2995 RMK A01 T02330199  RH  081%=      5-min Rain = 0
KWE1 260705Z 14011KT 23/20 A2995 RMK A01 T02320199  RH  081%=      5-min Rain = 0
KWE1 260706Z 14011KT 23/20 A2995 RMK A01 T02330199  RH  081%=      5-min Rain = 0
KWE1 260707Z 14009KT 23/20 A2995 RMK A01 T02330198  RH  081%=      5-min Rain = 0
KWE1 260708Z 14009KT 23/20 A2995 RMK A01 T02330198  RH  081%=      5-min Rain = 0
KWE1 260709Z 14010KT 23/20 A2995 RMK A01 T02330198  RH  081%=      5-min Rain = 0
KWE1 260710Z 14012KT 23/20 A2995 RMK A01 T02330198  RH  081%=      5-min Rain = 0
KWE1 260711Z 14011KT 23/20 A2995 RMK A01 T02340198  RH  080%=      5-min Rain = 0
KWE1 260712Z 14010KT 23/20 A2995 RMK A01 T02340198  RH  080%=      5-min Rain = 0
KWE1 260713Z 15012KT 23/20 A2995 RMK A01 T02340199  RH  080%=      5-min Rain = 0
KWE1 260714Z 15012KT 23/20 A2995 RMK A01 T02340199  RH  081%=      5-min Rain = 0
KWE1 260715Z 14012KT 23/20 A2995 RMK A01 T02330198  RH  081%=      5-min Rain = 0
KWE1 260716Z 15012KT 23/20 A2995 RMK A01 T02330198  RH  081%=      5-min Rain = 0
KWE1 260717Z 14013KT 23/20 A2995 RMK A01 T02330198  RH  081%=      5-min Rain = 0
KWE1 260718Z 15012KT 23/20 A2996 RMK A01 T02330198  RH  080%=      5-min Rain = 0
KWE1 260719Z 15010KT 23/20 A2996 RMK A01 T02330198  RH  081%=      5-min Rain = 0
KWE1 260720Z 15011KT 23/20 A2996 RMK A01 T02330198  RH  081%=      5-min Rain = 0
KWE1 260721Z 15010KT 23/20 A2996 RMK A01 T02330198  RH  081%=      5-min Rain = 0
KWE1 260722Z 15010KT 23/20 A2996 RMK A01 T02320198  RH  081%=      5-min Rain = 0
KWE1 260723Z 15011KT 23/20 A2996 RMK A01 T02320198  RH  081%=      5-min Rain = 0
KWE1 260724Z 14011KT 23/20 A2996 RMK A01 T02320198  RH  081%=      5-min Rain = 0
KWE1 260725Z 15010KT 23/20 A2996 RMK A01 T02320198  RH  081%=      5-min Rain = 0
KWE1 260726Z 15010KT 23/20 A2996 RMK A01 T02320197  RH  081%=      5-min Rain = 0
KWE1 260727Z 14011KT 23/20 A2996 RMK A01 T02320198  RH  081%=      5-min Rain = 0
KWE1 260728Z 15011KT 23/20 A2995 RMK A01 T02320198  RH  081%=      5-min Rain = 0
KWE1 260729Z 15011KT 23/20 A2995 RMK A01 T02310197  RH  081%=      5-min Rain = 0
KWE1 260730Z 14010KT 23/20 A2995 RMK A01 T02310198  RH  081%=      5-min Rain = 0
KWE1 260731Z 15009KT 23/20 A2995 RMK A01 T02310198  RH  081%=      5-min Rain = 0
KWE1 260732Z 15010KT 23/20 A2995 RMK A01 T02310197  RH  081%=      5-min Rain = 0
KWE1 260733Z 14010KT 23/20 A2995 RMK A01 T02310198  RH  082%=      5-min Rain = 0
KWE1 260734Z 14011KT 23/20 A2995 RMK A01 T02300197  RH  082%=      5-min Rain = 0
KWE1 260735Z 14009KT 23/20 A2995 RMK A01 T02300197  RH  082%=      5-min Rain = 0
KWE1 260736Z 14009KT 23/20 A2995 RMK A01 T02300198  RH  082%=      5-min Rain = 0
KWE1 260737Z 14011KT 23/20 A2995 RMK A01 T02300198  RH  082%=      5-min Rain = 0
KWE1 260738Z 14011KT 23/20 A2996 RMK A01 T02290197  RH  082%=      5-min Rain = 0
KWE1 260739Z 15011KT 23/20 A2996 RMK A01 T02300197  RH  082%=      5-min Rain = 0
KWE1 260740Z 14010KT 23/20 A2996 RMK A01 T02290197  RH  082%=      5-min Rain = 0
KWE1 260741Z 14011KT 23/20 A2996 RMK A01 T02290197  RH  082%=      5-min Rain = 0
KWE1 260742Z 14011KT 23/20 A2996 RMK A01 T02290197  RH  082%=      5-min Rain = 0
KWE1 260743Z 14012KT 23/20 A2996 RMK A01 T02290197  RH  082%=      5-min Rain = 0
KWE1 260744Z 14010KT 23/20 A2996 RMK A01 T02300196  RH  082%=      5-min Rain = 0
KWE1 260745Z 15011KT 23/20 A2995 RMK A01 T02300197  RH  081%=      5-min Rain = 0
KWE1 260746Z 14010KT 23/20 A2995 RMK A01 T02300197  RH  082%=      5-min Rain = 0
KWE1 260747Z 14011KT 23/20 A2995 RMK A01 T02300197  RH  082%=      5-min Rain = 0
KWE1 260748Z 14011KT 23/20 A2995 RMK A01 T02290196  RH  082%=      5-min Rain = 0
KWE1 260749Z 15011KT 23/20 A2995 RMK A01 T02290196  RH  082%=      5-min Rain = 0
KWE1 260750Z 15011KT 23/20 A2995 RMK A01 T02290197  RH  082%=      5-min Rain = 0
KWE1 260751Z 15012KT 23/20 A2995 RMK A01 T02290196  RH  082%=      5-min Rain = 0
KWE1 260752Z 14011KT 23/20 A2995 RMK A01 T02290196  RH  082%=      5-min Rain = 0
KWE1 260753Z 15012KT 23/20 A2995 RMK A01 T02290196  RH  082%=      5-min Rain = 0
KWE1 260754Z 15011KT 23/20 A2995 RMK A01 T02290196  RH  082%=      5-min Rain = 0
KWE1 260755Z 15011KT 23/20 A2995 RMK A01 T02290196  RH  082%=      5-min Rain = 0
KWE1 260756Z 15011KT 23/20 A2995 RMK A01 T02280196  RH  082%=      5-min Rain = 0
KWE1 260757Z 15012KT 23/20 A2995 RMK A01 T02280196  RH  082%=      5-min Rain = 0
KWE1 260758Z 15011KT 23/20 A2995 RMK A01 T02280196  RH  082%=      5-min Rain = 0
KWE1 260759Z 15011KT 23/20 A2995 RMK A01 T02280196  RH  082%=      5-min Rain = 0
KWE1 260800Z 15012KT 23/20 A2995 RMK A01 T02280196  RH  082%=      5-min Rain = 0
KWE1 260801Z 15012KT 23/20 A2995 RMK A01 T02280196  RH  082%=      5-min Rain = 0
KWE1 260802Z 15011KT 23/20 A2995 RMK A01 T02280196  RH  082%=      5-min Rain = 0
KWE1 260803Z 15012KT 23/20 A2995 RMK A01 T02280196  RH  082%=      5-min Rain = 0
KWE1 260804Z 15011KT 23/20 A2995 RMK A01 T02280195  RH  082%=      5-min Rain = 0
KWE1 260805Z 15012KT 23/20 A2995 RMK A01 T02280196  RH  082%=      5-min Rain = 0
KWE1 260806Z 15011KT 23/20 A2995 RMK A01 T02280196  RH  082%=      5-min Rain = 0
KWE1 260807Z 15011KT 23/20 A2995 RMK A01 T02280195  RH  082%=      5-min Rain = 0
KWE1 260808Z 15011KT 23/20 A2995 RMK A01 T02280195  RH  082%=      5-min Rain = 0
KWE1 260809Z 15010KT 23/20 A2995 RMK A01 T02280196  RH  082%=      5-min Rain = 0
KWE1 260810Z 15011KT 23/20 A2995 RMK A01 T02270195  RH  082%=      5-min Rain = 0
KWE1 260811Z 15010KT 23/20 A2995 RMK A01 T02270195  RH  082%=      5-min Rain = 0
KWE1 260812Z 15011KT 23/20 A2995 RMK A01 T02270195  RH  082%=      5-min Rain = 0
KWE1 260813Z 15010KT 23/20 A2995 RMK A01 T02270195  RH  082%=      5-min Rain = 0
KWE1 260814Z 15012KT 23/20 A2995 RMK A01 T02270195  RH  082%=      5-min Rain = 0
KWE1 260815Z 14012KT 23/20 A2995 RMK A01 T02270195  RH  082%=      5-min Rain = 0
KWE1 260816Z 15012KT 23/20 A2995 RMK A01 T02270195  RH  082%=      5-min Rain = 0
KWE1 260817Z 15010KT 23/20 A2995 RMK A01 T02270195  RH  082%=      5-min Rain = 0
KWE1 260818Z 15010KT 23/20 A2995 RMK A01 T02270195  RH  082%=      5-min Rain = 0
KWE1 260819Z 15011KT 23/20 A2995 RMK A01 T02260195  RH  082%=      5-min Rain = 0
KWE1 260820Z 15010KT 23/19 A2995 RMK A01 T02260194  RH  083%=      5-min Rain = 0
KWE1 260821Z 14011KT 23/20 A2995 RMK A01 T02260195  RH  083%=      5-min Rain = 0
KWE1 260822Z 15010KT 23/19 A2995 RMK A01 T02250194  RH  083%=      5-min Rain = 0
KWE1 260823Z 15010KT 23/20 A2995 RMK A01 T02250195  RH  083%=      5-min Rain = 0
KWE1 260824Z 14010KT 23/20 A2995 RMK A01 T02250195  RH  083%=      5-min Rain = 0
KWE1 260825Z 15010KT 23/20 A2995 RMK A01 T02250195  RH  083%=      5-min Rain = 0
KWE1 260826Z 15010KT 23/19 A2995 RMK A01 T02250194  RH  083%=      5-min Rain = 0
KWE1 260827Z 14009KT 23/19 A2995 RMK A01 T02250194  RH  083%=      5-min Rain = 0
KWE1 260828Z 14010KT 23/19 A2995 RMK A01 T02250194  RH  083%=      5-min Rain = 0
KWE1 260829Z 15010KT 22/19 A2995 RMK A01 T02240194  RH  083%=      5-min Rain = 0
KWE1 260830Z 15010KT 22/19 A2995 RMK A01 T02240194  RH  083%=      5-min Rain = 0
KWE1 260831Z 15011KT 22/19 A2995 RMK A01 T02240194  RH  083%=      5-min Rain = 0
KWE1 260832Z 14010KT 23/19 A2995 RMK A01 T02250194  RH  083%=      5-min Rain = 0
KWE1 260833Z 15010KT 22/19 A2995 RMK A01 T02240194  RH  083%=      5-min Rain = 0
KWE1 260834Z 15010KT 22/19 A2995 RMK A01 T02240194  RH  083%=      5-min Rain = 0
KWE1 260835Z 15011KT 22/19 A2995 RMK A01 T02240194  RH  083%=      5-min Rain = 0
KWE1 260836Z 15010KT 22/19 A2995 RMK A01 T02230194  RH  083%=      5-min Rain = 0
KWE1 260837Z 14009KT 22/19 A2995 RMK A01 T02230194  RH  083%=      5-min Rain = 0
KWE1 260838Z 14010KT 22/19 A2995 RMK A01 T02230194  RH  083%=      5-min Rain = 0
KWE1 260839Z 15010KT 22/19 A2995 RMK A01 T02230194  RH  083%=      5-min Rain = 0
KWE1 260840Z 14010KT 22/19 A2995 RMK A01 T02230194  RH  083%=      5-min Rain = 0
KWE1 260841Z 15011KT 22/19 A2994 RMK A01 T02230194  RH  083%=      5-min Rain = 0
KWE1 260842Z 14010KT 22/19 A2994 RMK A01 T02230194  RH  083%=      5-min Rain = 0
KWE1 260843Z 14010KT 22/19 A2994 RMK A01 T02230193  RH  084%=      5-min Rain = 0
KWE1 260844Z 14012KT 22/19 A2994 RMK A01 T02230193  RH  083%=      5-min Rain = 0
KWE1 260845Z 14010KT 22/19 A2994 RMK A01 T02220193  RH  083%=      5-min Rain = 0
KWE1 260846Z 14011KT 22/19 A2994 RMK A01 T02230193  RH  083%=      5-min Rain = 0
KWE1 260847Z 14009KT 22/19 A2994 RMK A01 T02230193  RH  083%=      5-min Rain = 0
KWE1 260848Z 15011KT 22/19 A2994 RMK A01 T02220193  RH  083%=      5-min Rain = 0
KWE1 260849Z 14012KT 22/19 A2994 RMK A01 T02220193  RH  083%=      5-min Rain = 0
KWE1 260850Z 14011KT 22/19 A2994 RMK A01 T02220193  RH  083%=      5-min Rain = 0
KWE1 260851Z 15011KT 22/19 A2994 RMK A01 T02220192  RH  083%=      5-min Rain = 0
KWE1 260852Z 14012KT 22/19 A2994 RMK A01 T02220192  RH  083%=      5-min Rain = 0
KWE1 260853Z 15011KT 22/19 A2994 RMK A01 T02220192  RH  083%=      5-min Rain = 0
KWE1 260854Z 14014KT 22/19 A2994 RMK A01 T02220192  RH  083%=      5-min Rain = 0
KWE1 260855Z 15011KT 22/19 A2994 RMK A01 T02230192  RH  083%=      5-min Rain = 0
KWE1 260856Z 15012KT 22/19 A2994 RMK A01 T02220192  RH  083%=      5-min Rain = 0
KWE1 260857Z 15012KT 22/19 A2994 RMK A01 T02230192  RH  083%=      5-min Rain = 0
KWE1 260858Z 15011KT 22/19 A2994 RMK A01 T02230192  RH  083%=      5-min Rain = 0
KWE1 260859Z 15011KT 22/19 A2994 RMK A01 T02230192  RH  083%=      5-min Rain = 0
KWE1 260900Z 15011KT 22/19 A2994 RMK A01 T02230192  RH  083%=      5-min Rain = 0
KWE1 260901Z 15011KT 22/19 A2994 RMK A01 T02220192  RH  083%=      5-min Rain = 0
KWE1 260902Z 15011KT 22/19 A2994 RMK A01 T02220192  RH  083%=      5-min Rain = 0
KWE1 260903Z 15010KT 22/19 A2994 RMK A01 T02220192  RH  083%=      5-min Rain = 0
KWE1 260904Z 15010KT 22/19 A2994 RMK A01 T02220192  RH  083%=      5-min Rain = 0
KWE1 260905Z 15011KT 22/19 A2994 RMK A01 T02220192  RH  083%=      5-min Rain = 0
KWE1 260906Z 15011KT 22/19 A2994 RMK A01 T02220192  RH  083%=      5-min Rain = 0
KWE1 260907Z 14010KT 22/19 A2994 RMK A01 T02220192  RH  083%=      5-min Rain = 0
KWE1 260908Z 14010KT 22/19 A2994 RMK A01 T02210192  RH  083%=      5-min Rain = 0
KWE1 260909Z 15012KT 22/19 A2994 RMK A01 T02210192  RH  084%=      5-min Rain = 0
KWE1 260910Z 15011KT 22/19 A2994 RMK A01 T02210192  RH  084%=      5-min Rain = 0
KWE1 260911Z 14012KT 22/19 A2994 RMK A01 T02210192  RH  084%=      5-min Rain = 0
KWE1 260912Z 14013KT 22/19 A2994 RMK A01 T02210192  RH  084%=      5-min Rain = 0
KWE1 260913Z 15012KT 22/19 A2994 RMK A01 T02210192  RH  083%=      5-min Rain = 0
KWE1 260914Z 15011KT 22/19 A2995 RMK A01 T02210191  RH  083%=      5-min Rain = 0
KWE1 260915Z 14010KT 22/19 A2995 RMK A01 T02210191  RH  083%=      5-min Rain = 0
KWE1 260916Z 15011KT 22/19 A2995 RMK A01 T02200191  RH  083%=      5-min Rain = 0
KWE1 260917Z 15011KT 22/19 A2995 RMK A01 T02200191  RH  084%=      5-min Rain = 0
KWE1 260918Z 14012KT 22/19 A2995 RMK A01 T02200191  RH  083%=      5-min Rain = 0
KWE1 260919Z 14012KT 22/19 A2995 RMK A01 T02200191  RH  083%=      5-min Rain = 0
KWE1 260920Z 14012KT 22/19 A2995 RMK A01 T02200191  RH  083%=      5-min Rain = 0
KWE1 260921Z 15012KT 22/19 A2995 RMK A01 T02210191  RH  083%=      5-min Rain = 0
KWE1 260922Z 15011KT 22/19 A2995 RMK A01 T02210191  RH  083%=      5-min Rain = 0
KWE1 260923Z 15010KT 22/19 A2995 RMK A01 T02210191  RH  083%=      5-min Rain = 0
KWE1 260924Z 14011KT 22/19 A2995 RMK A01 T02200191  RH  083%=      5-min Rain = 0
KWE1 260925Z 15010KT 22/19 A2995 RMK A01 T02200191  RH  083%=      5-min Rain = 0
KWE1 260926Z 14010KT 22/19 A2995 RMK A01 T02200191  RH  084%=      5-min Rain = 0
KWE1 260927Z 14012KT 22/19 A2995 RMK A01 T02190191  RH  084%=      5-min Rain = 0
KWE1 260928Z 14011KT 22/19 A2995 RMK A01 T02190191  RH  084%=      5-min Rain = 0
KWE1 260929Z 14011KT 22/19 A2995 RMK A01 T02190191  RH  084%=      5-min Rain = 0
KWE1 260930Z 14012KT 22/19 A2995 RMK A01 T02190190  RH  084%=      5-min Rain = 0
KWE1 260931Z 14012KT 22/19 A2995 RMK A01 T02190190  RH  084%=      5-min Rain = 0
KWE1 260932Z 15012KT 22/19 A2995 RMK A01 T02190190  RH  083%=      5-min Rain = 0
KWE1 260933Z 15010KT 22/19 A2995 RMK A01 T02190190  RH  084%=      5-min Rain = 0
KWE1 260934Z 15012KT 22/19 A2995 RMK A01 T02190190  RH  084%=      5-min Rain = 0
KWE1 260935Z 15011KT 22/19 A2995 RMK A01 T02190190  RH  084%=      5-min Rain = 0
KWE1 260936Z 15010KT 22/19 A2995 RMK A01 T02190190  RH  084%=      5-min Rain = 0
KWE1 260937Z 15011KT 22/19 A2995 RMK A01 T02190190  RH  084%=      5-min Rain = 0
KWE1 260938Z 15010KT 22/19 A2995 RMK A01 T02190190  RH  084%=      5-min Rain = 0
KWE1 260939Z 15010KT 22/19 A2995 RMK A01 T02190190  RH  084%=      5-min Rain = 0
KWE1 260940Z 15010KT 22/19 A2995 RMK A01 T02180190  RH  084%=      5-min Rain = 0
KWE1 260941Z 15011KT 22/19 A2995 RMK A01 T02180190  RH  084%=      5-min Rain = 0
KWE1 260942Z 15010KT 22/19 A2995 RMK A01 T02180190  RH  084%=      5-min Rain = 0
KWE1 260943Z 15011KT 22/19 A2995 RMK A01 T02180190  RH  084%=      5-min Rain = 0
KWE1 260944Z 15011KT 22/19 A2995 RMK A01 T02180190  RH  084%=      5-min Rain = 0
KWE1 260945Z 15011KT 22/19 A2995 RMK A01 T02180190  RH  084%=      5-min Rain = 0
KWE1 260946Z 15010KT 22/19 A2995 RMK A01 T02180189  RH  084%=      5-min Rain = 0
KWE1 260947Z 14012KT 22/19 A2995 RMK A01 T02180190  RH  084%=      5-min Rain = 0
KWE1 260948Z 15011KT 22/19 A2995 RMK A01 T02180190  RH  084%=      5-min Rain = 0
KWE1 260949Z 15011KT 22/19 A2995 RMK A01 T02180190  RH  084%=      5-min Rain = 0
KWE1 260950Z 15012KT 22/19 A2995 RMK A01 T02170190  RH  084%=      5-min Rain = 0
KWE1 260951Z 15011KT 22/19 A2995 RMK A01 T02170190  RH  084%=      5-min Rain = 0
KWE1 260952Z 14012KT 22/19 A2995 RMK A01 T02180190  RH  084%=      5-min Rain = 0
KWE1 260953Z 14011KT 22/19 A2995 RMK A01 T02180190  RH  084%=      5-min Rain = 0
KWE1 260954Z 15010KT 22/19 A2995 RMK A01 T02170190  RH  084%=      5-min Rain = 0
KWE1 260955Z 15010KT 22/19 A2995 RMK A01 T02170189  RH  084%=      5-min Rain = 0
KWE1 260956Z 15011KT 22/19 A2995 RMK A01 T02170189  RH  084%=      5-min Rain = 0
KWE1 260957Z 15011KT 22/19 A2995 RMK A01 T02170189  RH  084%=      5-min Rain = 0
KWE1 260958Z 15010KT 22/19 A2995 RMK A01 T02170189  RH  084%=      5-min Rain = 0
KWE1 260959Z 15011KT 22/19 A2995 RMK A01 T02170189  RH  084%=      5-min Rain = 0
KWE1 261000Z 15010KT 22/19 A2995 RMK A01 T02170189  RH  084%=      5-min Rain = 0
KWE1 261001Z 15010KT 22/19 A2995 RMK A01 T02160189  RH  085%=      5-min Rain = 0
KWE1 261002Z 15011KT 22/19 A2995 RMK A01 T02160189  RH  085%=      5-min Rain = 0
KWE1 261003Z 15010KT 22/19 A2995 RMK A01 T02160189  RH  084%=      5-min Rain = 0
KWE1 261004Z 15011KT 22/19 A2995 RMK A01 T02160189  RH  084%=      5-min Rain = 0
KWE1 261005Z 15010KT 22/19 A2995 RMK A01 T02160189  RH  084%=      5-min Rain = 0
KWE1 261006Z 15009KT 22/19 A2995 RMK A01 T02160188  RH  084%=      5-min Rain = 0
KWE1 261007Z 15010KT 22/19 A2995 RMK A01 T02160189  RH  084%=      5-min Rain = 0
KWE1 261008Z 15010KT 22/19 A2995 RMK A01 T02160188  RH  084%=      5-min Rain = 0
KWE1 261009Z 15009KT 22/19 A2995 RMK A01 T02160189  RH  084%=      5-min Rain = 0
KWE1 261010Z 15010KT 22/19 A2995 RMK A01 T02160188  RH  084%=      5-min Rain = 0
KWE1 261011Z 15010KT 22/19 A2995 RMK A01 T02160188  RH  084%=      5-min Rain = 0
KWE1 261012Z 15009KT 22/19 A2995 RMK A01 T02160189  RH  085%=      5-min Rain = 0
KWE1 261013Z 16011KT 22/19 A2995 RMK A01 T02150188  RH  085%=      5-min Rain = 0
KWE1 261014Z 15011KT 22/19 A2996 RMK A01 T02150188  RH  085%=      5-min Rain = 0
KWE1 261015Z 15008KT 22/19 A2996 RMK A01 T02150188  RH  085%=      5-min Rain = 0
KWE1 261016Z 15009KT 22/19 A2996 RMK A01 T02150188  RH  085%=      5-min Rain = 0
KWE1 261017Z 15009KT 21/19 A2996 RMK A01 T02140188  RH  085%=      5-min Rain = 0
KWE1 261018Z 15010KT 21/19 A2996 RMK A01 T02140188  RH  085%=      5-min Rain = 0
KWE1 261019Z 15010KT 21/19 A2996 RMK A01 T02140188  RH  085%=      5-min Rain = 0
KWE1 261020Z 15009KT 21/19 A2996 RMK A01 T02140188  RH  085%=      5-min Rain = 0
KWE1 261021Z 15009KT 21/19 A2996 RMK A01 T02140188  RH  085%=      5-min Rain = 0
KWE1 261022Z 15009KT 21/19 A2996 RMK A01 T02130187  RH  085%=      5-min Rain = 0
KWE1 261023Z 15010KT 21/19 A2996 RMK A01 T02130187  RH  085%=      5-min Rain = 0
KWE1 261024Z 15009KT 21/19 A2996 RMK A01 T02130187  RH  085%=      5-min Rain = 0
KWE1 261025Z 15010KT 21/19 A2996 RMK A01 T02130187  RH  085%=      5-min Rain = 0
KWE1 261026Z 15010KT 21/19 A2996 RMK A01 T02130187  RH  085%=      5-min Rain = 0
KWE1 261027Z 15010KT 21/19 A2996 RMK A01 T02130187  RH  085%=      5-min Rain = 0
KWE1 261028Z 15011KT 21/19 A2996 RMK A01 T02130187  RH  085%=      5-min Rain = 0
KWE1 261029Z 15010KT 21/19 A2996 RMK A01 T02130187  RH  085%=      5-min Rain = 0
KWE1 261030Z 16011KT 21/19 A2996 RMK A01 T02130187  RH  085%=      5-min Rain = 0
KWE1 261031Z 15011KT 21/19 A2996 RMK A01 T02130186  RH  085%=      5-min Rain = 0
KWE1 261032Z 15012KT 21/19 A2996 RMK A01 T02130186  RH  085%=      5-min Rain = 0
KWE1 261033Z 15009KT 21/19 A2996 RMK A01 T02130186  RH  084%=      5-min Rain = 0
KWE1 261034Z 15013KT 21/19 A2996 RMK A01 T02130186  RH  084%=      5-min Rain = 0
KWE1 261035Z 15013KT 21/19 A2996 RMK A01 T02140186  RH  084%=      5-min Rain = 0
KWE1 261036Z 14011KT 21/19 A2996 RMK A01 T02140186  RH  084%=      5-min Rain = 0
KWE1 261037Z 16010KT 21/19 A2996 RMK A01 T02140187  RH  084%=      5-min Rain = 0
KWE1 261038Z 15011KT 21/19 A2996 RMK A01 T02140186  RH  085%=      5-min Rain = 0
KWE1 261039Z 15012KT 21/19 A2996 RMK A01 T02130186  RH  085%=      5-min Rain = 0
KWE1 261040Z 15010KT 21/19 A2996 RMK A01 T02130186  RH  084%=      5-min Rain = 0
KWE1 261041Z 15010KT 21/19 A2996 RMK A01 T02130186  RH  085%=      5-min Rain = 0
KWE1 261042Z 15009KT 21/19 A2996 RMK A01 T02130186  RH  085%=      5-min Rain = 0
KWE1 261043Z 15010KT 21/19 A2996 RMK A01 T02120186  RH  085%=      5-min Rain = 0
KWE1 261044Z 14009KT 21/19 A2996 RMK A01 T02120186  RH  085%=      5-min Rain = 0
KWE1 261045Z 15012KT 21/19 A2996 RMK A01 T02120186  RH  085%=      5-min Rain = 0
KWE1 261046Z 15010KT 21/19 A2996 RMK A01 T02120186  RH  085%=      5-min Rain = 0
KWE1 261047Z 15010KT 21/19 A2996 RMK A01 T02110185  RH  085%=      5-min Rain = 0
KWE1 261048Z 15011KT 21/19 A2996 RMK A01 T02120186  RH  085%=      5-min Rain = 0
KWE1 261049Z 15010KT 21/19 A2996 RMK A01 T02120185  RH  085%=      5-min Rain = 0
KWE1 261050Z 15010KT 21/19 A2996 RMK A01 T02120185  RH  085%=      5-min Rain = 0
KWE1 261051Z 15010KT 21/19 A2996 RMK A01 T02120185  RH  085%=      5-min Rain = 0
KWE1 261052Z 15009KT 21/19 A2996 RMK A01 T02120185  RH  085%=      5-min Rain = 0
KWE1 261053Z 15009KT 21/19 A2996 RMK A01 T02110185  RH  085%=      5-min Rain = 0
KWE1 261054Z 15011KT 21/19 A2996 RMK A01 T02110185  RH  085%=      5-min Rain = 0
KWE1 261055Z 15012KT 21/19 A2996 RMK A01 T02110185  RH  085%=      5-min Rain = 0
KWE1 261056Z 15010KT 21/19 A2996 RMK A01 T02110185  RH  085%=      5-min Rain = 0
KWE1 261057Z 15010KT 21/19 A2996 RMK A01 T02110185  RH  085%=      5-min Rain = 0
KWE1 261058Z 15011KT 21/19 A2996 RMK A01 T02110185  RH  085%=      5-min Rain = 0
KWE1 261059Z 15011KT 21/19 A2996 RMK A01 T02110185  RH  085%=      5-min Rain = 0
KWE1 261100Z 15011KT 21/19 A2996 RMK A01 T02110185  RH  085%=      5-min Rain = 0
KWE1 261101Z 15012KT 21/19 A2996 RMK A01 T02110185  RH  085%=      5-min Rain = 0
KWE1 261102Z 15011KT 21/19 A2996 RMK A01 T02110185  RH  085%=      5-min Rain = 0
KWE1 261103Z 15010KT 21/19 A2996 RMK A01 T02110185  RH  085%=      5-min Rain = 0
KWE1 261104Z 15010KT 21/19 A2996 RMK A01 T02110185  RH  085%=      5-min Rain = 0
KWE1 261105Z 15011KT 21/19 A2996 RMK A01 T02100185  RH  086%=      5-min Rain = 0
KWE1 261106Z 15009KT 21/19 A2996 RMK A01 T02100185  RH  086%=      5-min Rain = 0
KWE1 261107Z 15011KT 21/19 A2997 RMK A01 T02100185  RH  086%=      5-min Rain = 0
KWE1 261108Z 15010KT 21/19 A2997 RMK A01 T02100185  RH  086%=      5-min Rain = 0
KWE1 261109Z 15010KT 21/19 A2997 RMK A01 T02090185  RH  086%=      5-min Rain = 0
KWE1 261110Z 15012KT 21/19 A2997 RMK A01 T02090185  RH  086%=      5-min Rain = 0
KWE1 261111Z 15011KT 21/18 A2997 RMK A01 T02090184  RH  086%=      5-min Rain = 0
KWE1 261112Z 15012KT 21/18 A2997 RMK A01 T02090184  RH  086%=      5-min Rain = 0
KWE1 261113Z 15013KT 21/18 A2997 RMK A01 T02100184  RH  085%=      5-min Rain = 0
KWE1 261114Z 16013KT 21/18 A2997 RMK A01 T02100184  RH  085%=      5-min Rain = 0
KWE1 261115Z 15013KT 21/19 A2997 RMK A01 T02110185  RH  085%=      5-min Rain = 0
KWE1 261116Z 16013KT 21/18 A2997 RMK A01 T02110184  RH  085%=      5-min Rain = 0
KWE1 261117Z 15015KT 21/19 A2997 RMK A01 T02110185  RH  085%=      5-min Rain = 0
KWE1 261118Z 15013KT 21/18 A2997 RMK A01 T02110184  RH  085%=      5-min Rain = 0
KWE1 261119Z 15013KT 21/18 A2997 RMK A01 T02110184  RH  085%=      5-min Rain = 0
KWE1 261120Z 15013KT 21/18 A2997 RMK A01 T02110184  RH  085%=      5-min Rain = 0
KWE1 261121Z 16013KT 21/18 A2997 RMK A01 T02110184  RH  085%=      5-min Rain = 0
KWE1 261122Z 15014G19KT 21/19 A2997 RMK A01 T02110185  RH  085%=      5-min Rain = 0
KWE1 261123Z 15014KT 21/18 A2997 RMK A01 T02110184  RH  085%=      5-min Rain = 0
KWE1 261124Z 15012KT 21/18 A2997 RMK A01 T02110184  RH  085%=      5-min Rain = 0
KWE1 261125Z 15013KT 21/18 A2998 RMK A01 T02110184  RH  085%=      5-min Rain = 0
KWE1 261126Z 15014KT 21/18 A2998 RMK A01 T02110184  RH  085%=      5-min Rain = 0
KWE1 261127Z 15013KT 21/18 A2997 RMK A01 T02110184  RH  085%=      5-min Rain = 0
KWE1 261128Z 15013KT 21/18 A2997 RMK A01 T02110184  RH  085%=      5-min Rain = 0
KWE1 261129Z 15011KT 21/18 A2997 RMK A01 T02110184  RH  085%=      5-min Rain = 0
KWE1 261130Z 15011KT 21/18 A2998 RMK A01 T02110184  RH  085%=      5-min Rain = 0
KWE1 261131Z 15012KT 21/18 A2997 RMK A01 T02100184  RH  085%=      5-min Rain = 0
KWE1 261132Z 15013KT 21/18 A2997 RMK A01 T02100184  RH  085%=      5-min Rain = 0
KWE1 261133Z 15012KT 21/19 A2997 RMK A01 T02100185  RH  085%=      5-min Rain = 0
KWE1 261134Z 15011KT 21/18 A2997 RMK A01 T02100184  RH  085%=      5-min Rain = 0
KWE1 261135Z 15011KT 21/18 A2997 RMK A01 T02100184  RH  085%=      5-min Rain = 0
KWE1 261136Z 15013KT 21/18 A2997 RMK A01 T02090184  RH  085%=      5-min Rain = 0
KWE1 261137Z 15012KT 21/18 A2997 RMK A01 T02090184  RH  085%=      5-min Rain = 0
KWE1 261138Z 15010KT 21/18 A2997 RMK A01 T02090184  RH  085%=      5-min Rain = 0
KWE1 261139Z 15010G15KT 21/18 A2997 RMK A01 T02090184  RH  085%=      5-min Rain = 0
KWE1 261140Z 15013KT 21/18 A2997 RMK A01 T02090184  RH  086%=      5-min Rain = 0
KWE1 261141Z 15010KT 21/18 A2997 RMK A01 T02090184  RH  085%=      5-min Rain = 0
KWE1 261142Z 16011KT 21/18 A2997 RMK A01 T02090184  RH  086%=      5-min Rain = 0
KWE1 261143Z 15012KT 21/18 A2998 RMK A01 T02090184  RH  086%=      5-min Rain = 0
KWE1 261144Z 15014KT 21/18 A2997 RMK A01 T02090184  RH  086%=      5-min Rain = 0
KWE1 261145Z 15011KT 21/18 A2998 RMK A01 T02090184  RH  086%=      5-min Rain = 0
KWE1 261146Z 15012KT 21/18 A2998 RMK A01 T02090184  RH  085%=      5-min Rain = 0
KWE1 261147Z 15014KT 21/18 A2998 RMK A01 T02090184  RH  085%=      5-min Rain = 0
KWE1 261148Z 16015KT 21/18 A2998 RMK A01 T02090184  RH  085%=      5-min Rain = 0
KWE1 261149Z 15012KT 21/18 A2998 RMK A01 T02100184  RH  085%=      5-min Rain = 0
KWE1 261150Z 15011KT 21/18 A2998 RMK A01 T02100184  RH  085%=      5-min Rain = 0
KWE1 261151Z 14010KT 21/18 A2998 RMK A01 T02100184  RH  085%=      5-min Rain = 0
KWE1 261152Z 16011KT 21/18 A2998 RMK A01 T02100184  RH  085%=      5-min Rain = 0
KWE1 261153Z 15014KT 21/18 A2998 RMK A01 T02090184  RH  085%=      5-min Rain = 0
KWE1 261154Z 15012KT 21/18 A2998 RMK A01 T02090183  RH  085%=      5-min Rain = 0
KWE1 261155Z 15011KT 21/18 A2998 RMK A01 T02100184  RH  085%=      5-min Rain = 0
KWE1 261156Z 15014KT 21/18 A2998 RMK A01 T02100183  RH  085%=      5-min Rain = 0
KWE1 261157Z 14011KT 21/18 A2998 RMK A01 T02100183  RH  085%=      5-min Rain = 0
KWE1 261158Z 16013KT 21/18 A2998 RMK A01 T02100183  RH  085%=      5-min Rain = 0
KWE1 261159Z 16013KT 21/18 A2998 RMK A01 T02100184  RH  085%=      5-min Rain = 0
KWE1 261200Z 16010KT 21/18 A2998 RMK A01 T02100183  RH  085%=      5-min Rain = 0
KWE1 261201Z 15012KT 21/18 A2998 RMK A01 T02100184  RH  085%=      5-min Rain = 0
KWE1 261202Z 15013KT 21/18 A2999 RMK A01 T02100184  RH  085%=      5-min Rain = 0
KWE1 261203Z 15011KT 21/18 A2999 RMK A01 T02100184  RH  085%=      5-min Rain = 0
KWE1 261204Z 16012KT 21/18 A2999 RMK A01 T02100184  RH  085%=      5-min Rain = 0
KWE1 261205Z 16012KT 21/18 A2999 RMK A01 T02100184  RH  085%=      5-min Rain = 0
KWE1 261206Z 16012KT 21/18 A2999 RMK A01 T02100183  RH  085%=      5-min Rain = 0
KWE1 261207Z 16012G17KT 21/18 A2999 RMK A01 T02100183  RH  085%=      5-min Rain = 0
KWE1 261208Z 16014KT 21/18 A2999 RMK A01 T02100183  RH  084%=      5-min Rain = 0
KWE1 261209Z 15013KT 21/18 A2999 RMK A01 T02110184  RH  084%=      5-min Rain = 0
KWE1 261210Z 16013KT 21/18 A2999 RMK A01 T02110184  RH  084%=      5-min Rain = 0
KWE1 261211Z 15013KT 21/18 A2999 RMK A01 T02110184  RH  084%=      5-min Rain = 0
KWE1 261212Z 16012KT 21/18 A2999 RMK A01 T02110184  RH  084%=      5-min Rain = 0
KWE1 261213Z 16012KT 21/18 A2999 RMK A01 T02110184  RH  084%=      5-min Rain = 0
KWE1 261214Z 16013KT 21/18 A2999 RMK A01 T02110184  RH  084%=      5-min Rain = 0
KWE1 261215Z 16011KT 21/18 A2999 RMK A01 T02110184  RH  084%=      5-min Rain = 0
KWE1 261216Z 16010KT 21/18 A30 RMK A01 T02110184  RH  084%=      5-min Rain = 0
KWE1 261217Z 16011KT 21/18 A30 RMK A01 T02110184  RH  085%=      5-min Rain = 0
KWE1 261218Z 16010KT 21/18 A30 RMK A01 T02110184  RH  084%=      5-min Rain = 0
KWE1 261219Z 16012KT 21/18 A30 RMK A01 T02110184  RH  084%=      5-min Rain = 0
KWE1 261220Z 16011KT 21/18 A30 RMK A01 T02120184  RH  084%=      5-min Rain = 0
KWE1 261221Z 16011KT 21/18 A30 RMK A01 T02120184  RH  084%=      5-min Rain = 0
KWE1 261222Z 16011KT 21/18 A30 RMK A01 T02120184  RH  084%=      5-min Rain = 0
KWE1 261223Z 16012KT 21/18 A30 RMK A01 T02120184  RH  084%=      5-min Rain = 0
KWE1 261224Z 16010KT 21/18 A30 RMK A01 T02120184  RH  084%=      5-min Rain = 0
KWE1 261225Z 16011KT 21/18 A30 RMK A01 T02130184  RH  084%=      5-min Rain = 0
KWE1 261226Z 16013KT 21/18 A30 RMK A01 T02130184  RH  084%=      5-min Rain = 0
KWE1 261227Z 16012KT 21/18 A30 RMK A01 T02130183  RH  083%=      5-min Rain = 0
KWE1 261228Z 16010KT 21/18 A30 RMK A01 T02130184  RH  084%=      5-min Rain = 0
KWE1 261229Z 16013KT 21/19 A30 RMK A01 T02140185  RH  084%=      5-min Rain = 0
KWE1 261230Z 16013KT 21/19 A30 RMK A01 T02140185  RH  084%=      5-min Rain = 0
KWE1 261231Z 16013KT 21/18 A30 RMK A01 T02140184  RH  083%=      5-min Rain = 0
KWE1 261232Z 15013KT 21/18 A30 RMK A01 T02140184  RH  083%=      5-min Rain = 0
KWE1 261233Z 15012KT 21/18 A30 RMK A01 T02140184  RH  083%=      5-min Rain = 0
KWE1 261234Z 16012KT 21/18 A30 RMK A01 T02140184  RH  083%=      5-min Rain = 0
KWE1 261235Z 16012KT 21/19 A30 RMK A01 T02140185  RH  083%=      5-min Rain = 0
KWE1 261236Z 16013KT 21/19 A30 RMK A01 T02140185  RH  083%=      5-min Rain = 0
KWE1 261237Z 16012KT 21/18 A30 RMK A01 T02140184  RH  083%=      5-min Rain = 0
KWE1 261238Z 16013G18KT 22/18 A30 RMK A01 T02150184  RH  083%=      5-min Rain = 0
KWE1 261239Z 16013KT 22/18 A30 RMK A01 T02150184  RH  082%=      5-min Rain = 0
KWE1 261240Z 16013KT 22/19 A3001 RMK A01 T02160185  RH  083%=      5-min Rain = 0
KWE1 261241Z 16011KT 22/19 A3001 RMK A01 T02160185  RH  082%=      5-min Rain = 0
KWE1 261242Z 16011KT 22/19 A3001 RMK A01 T02160185  RH  082%=      5-min Rain = 0
KWE1 261243Z 16010KT 22/19 A3001 RMK A01 T02160185  RH  083%=      5-min Rain = 0
KWE1 261244Z 16010KT 22/19 A3001 RMK A01 T02160186  RH  083%=      5-min Rain = 0
KWE1 261245Z 16010KT 22/19 A3001 RMK A01 T02170187  RH  083%=      5-min Rain = 0
KWE1 261246Z 15009KT 22/19 A3001 RMK A01 T02170186  RH  083%=      5-min Rain = 0
KWE1 261247Z 16013KT 22/19 A3001 RMK A01 T02170186  RH  082%=      5-min Rain = 0
KWE1 261248Z 17011KT 22/19 A3001 RMK A01 T02170185  RH  082%=      5-min Rain = 0
KWE1 261249Z 16009KT 22/19 A3001 RMK A01 T02180185  RH  082%=      5-min Rain = 0
KWE1 261250Z 16011KT 22/19 A3001 RMK A01 T02180186  RH  082%=      5-min Rain = 0
KWE1 261251Z 15012KT 22/19 A3001 RMK A01 T02190186  RH  082%=      5-min Rain = 0
KWE1 261252Z 16012KT 22/19 A3001 RMK A01 T02190186  RH  082%=      5-min Rain = 0
KWE1 261253Z 16011KT 22/19 A3001 RMK A01 T02190186  RH  081%=      5-min Rain = 0
KWE1 261254Z 16012KT 22/19 A3001 RMK A01 T02200186  RH  081%=      5-min Rain = 0
KWE1 261255Z 17011KT 22/19 A3001 RMK A01 T02200185  RH  081%=      5-min Rain = 0
KWE1 261256Z 16010KT 22/19 A3001 RMK A01 T02200186  RH  081%=      5-min Rain = 0
KWE1 261257Z 16011KT 22/19 A3001 RMK A01 T02200186  RH  081%=      5-min Rain = 0
KWE1 261258Z 17012KT 22/19 A3001 RMK A01 T02210187  RH  081%=      5-min Rain = 0
KWE1 261259Z 16009KT 22/19 A3001 RMK A01 T02210187  RH  081%=      5-min Rain = 0
KWE1 261300Z 16011KT 22/19 A3001 RMK A01 T02210187  RH  081%=      5-min Rain = 0
KWE1 261301Z 16012KT 22/19 A3001 RMK A01 T02210187  RH  081%=      5-min Rain = 0
KWE1 261302Z 17015KT 22/19 A3001 RMK A01 T02210185  RH  080%=      5-min Rain = 0
KWE1 261303Z 16013KT 22/19 A3001 RMK A01 T02200185  RH  080%=      5-min Rain = 0
KWE1 261304Z 16011KT 22/19 A3002 RMK A01 T02200185  RH  081%=      5-min Rain = 0
KWE1 261305Z 16012KT 22/19 A3002 RMK A01 T02200186  RH  081%=      5-min Rain = 0
KWE1 261306Z 17012KT 22/19 A3002 RMK A01 T02200186  RH  081%=      5-min Rain = 0
KWE1 261307Z 16012KT 22/19 A3002 RMK A01 T02200186  RH  081%=      5-min Rain = 0
KWE1 261308Z 16012KT 22/19 A3002 RMK A01 T02200186  RH  081%=      5-min Rain = 0
KWE1 261309Z 16013KT 22/19 A3002 RMK A01 T02210186  RH  081%=      5-min Rain = 0
KWE1 261310Z 16012KT 22/19 A3002 RMK A01 T02210186  RH  080%=      5-min Rain = 0
KWE1 261311Z 17012KT 22/19 A3002 RMK A01 T02210186  RH  080%=      5-min Rain = 0
KWE1 261312Z 16012KT 22/19 A3002 RMK A01 T02210185  RH  080%=      5-min Rain = 0
KWE1 261313Z 16010KT 22/19 A3002 RMK A01 T02210186  RH  080%=      5-min Rain = 0
KWE1 261314Z 17010KT 22/19 A3002 RMK A01 T02220187  RH  081%=      5-min Rain = 0
KWE1 261315Z 17012KT 22/19 A3002 RMK A01 T02220187  RH  080%=      5-min Rain = 0
KWE1 261316Z 17014KT 22/19 A3002 RMK A01 T02240187  RH  080%=      5-min Rain = 0
KWE1 261317Z 16013KT 22/19 A3001 RMK A01 T02240186  RH  079%=      5-min Rain = 0
KWE1 261318Z 16014KT 23/19 A3001 RMK A01 T02250187  RH  079%=      5-min Rain = 0
KWE1 261319Z 17013KT 23/19 A3001 RMK A01 T02250186  RH  079%=      5-min Rain = 0
KWE1 261320Z 17012KT 23/19 A3001 RMK A01 T02250187  RH  079%=      5-min Rain = 0
KWE1 261321Z 17013KT 23/19 A3001 RMK A01 T02250186  RH  079%=      5-min Rain = 0
KWE1 261322Z 16012KT 23/19 A3001 RMK A01 T02250187  RH  079%=      5-min Rain = 0
KWE1 261323Z 17012KT 23/19 A3001 RMK A01 T02250187  RH  079%=      5-min Rain = 0
KWE1 261324Z 16011KT 23/19 A3002 RMK A01 T02260188  RH  079%=      5-min Rain = 0
KWE1 261325Z 16010KT 23/19 A3002 RMK A01 T02260188  RH  079%=      5-min Rain = 0
KWE1 261326Z 16013KT 23/19 A3002 RMK A01 T02260188  RH  079%=      5-min Rain = 0
KWE1 261327Z 17014KT 23/19 A3002 RMK A01 T02270188  RH  079%=      5-min Rain = 0
KWE1 261328Z 18014KT 23/19 A3002 RMK A01 T02260186  RH  079%=      5-min Rain = 0
KWE1 261329Z 17012KT 22/19 A3002 RMK A01 T02240186  RH  079%=      5-min Rain = 0
KWE1 261330Z 17014KT 22/19 A3002 RMK A01 T02240186  RH  079%=      5-min Rain = 0
KWE1 261331Z 17016KT 22/19 A3002 RMK A01 T02230185  RH  079%=      5-min Rain = 0
KWE1 261332Z 17014KT 22/19 A3002 RMK A01 T02230186  RH  079%=      5-min Rain = 0
KWE1 261333Z 17015KT 22/19 A3002 RMK A01 T02230185  RH  079%=      5-min Rain = 0
KWE1 261334Z 17015KT 22/19 A3002 RMK A01 T02230186  RH  079%=      5-min Rain = 0
KWE1 261335Z 17012KT 22/19 A3002 RMK A01 T02240186  RH  079%=      5-min Rain = 0
KWE1 261336Z 17012KT 23/19 A3002 RMK A01 T02250187  RH  079%=      5-min Rain = 0
KWE1 261337Z 18013KT 23/19 A3002 RMK A01 T02260188  RH  079%=      5-min Rain = 0
KWE1 261338Z 18016KT 23/19 A3002 RMK A01 T02260187  RH  078%=      5-min Rain = 0
KWE1 261339Z 17015KT 23/19 A3002 RMK A01 T02270186  RH  078%=      5-min Rain = 0
KWE1 261340Z 17017KT 23/19 A3002 RMK A01 T02270187  RH  078%=      5-min Rain = 0
KWE1 261341Z 17016KT 23/19 A3002 RMK A01 T02280187  RH  078%=      5-min Rain = 0
KWE1 261342Z 18016KT 23/19 A3002 RMK A01 T02280187  RH  077%=      5-min Rain = 0
KWE1 261343Z 18018KT 23/19 A3002 RMK A01 T02280186  RH  077%=      5-min Rain = 0
KWE1 261344Z 18015KT 23/19 A3002 RMK A01 T02280186  RH  077%=      5-min Rain = 0
KWE1 261345Z 18017KT 23/19 A3002 RMK A01 T02290188  RH  078%=      5-min Rain = 0
KWE1 261346Z 17017G22KT 23/19 A3002 RMK A01 T02290187  RH  077%=      5-min Rain = 0
KWE1 261347Z 18018KT 23/19 A3002 RMK A01 T02300186  RH  076%=      5-min Rain = 0
KWE1 261348Z 17019KT 23/19 A3002 RMK A01 T02300186  RH  076%=      5-min Rain = 0
KWE1 261349Z 18019KT 23/19 A3002 RMK A01 T02310185  RH  075%=      5-min Rain = 0
KWE1 261350Z 17017KT 23/19 A3002 RMK A01 T02310187  RH  076%=      5-min Rain = 0
KWE1 261351Z 17016KT 23/19 A3002 RMK A01 T02310185  RH  075%=      5-min Rain = 0
KWE1 261352Z 18015KT 23/19 A3002 RMK A01 T02310188  RH  076%=      5-min Rain = 0
KWE1 261353Z 17016KT 23/19 A3002 RMK A01 T02320188  RH  076%=      5-min Rain = 0
KWE1 261354Z 18018KT 23/19 A3002 RMK A01 T02320186  RH  075%=      5-min Rain = 0
KWE1 261355Z 18016KT 23/19 A3002 RMK A01 T02320186  RH  075%=      5-min Rain = 0
KWE1 261356Z 18018KT 23/19 A3002 RMK A01 T02320187  RH  076%=      5-min Rain = 0
KWE1 261357Z 18015KT 23/19 A3002 RMK A01 T02320187  RH  076%=      5-min Rain = 0
KWE1 261358Z 18016KT 23/19 A3002 RMK A01 T02320188  RH  076%=      5-min Rain = 0
KWE1 261359Z 18015KT 23/19 A3003 RMK A01 T02330189  RH  076%=      5-min Rain = 0
KWE1 261400Z 18021G26KT 23/19 A3003 RMK A01 T02330187  RH  075%=      5-min Rain = 0
KWE1 261401Z 18020KT 23/19 A3003 RMK A01 T02330186  RH  075%=      5-min Rain = 0
KWE1 261402Z 18020KT 23/19 A3003 RMK A01 T02320186  RH  075%=      5-min Rain = 0
KWE1 261403Z 19019KT 23/19 A3003 RMK A01 T02320186  RH  075%=      5-min Rain = 0
KWE1 261404Z 18016KT 23/19 A3003 RMK A01 T02320186  RH  075%=      5-min Rain = 0
KWE1 261405Z 18014KT 23/19 A3003 RMK A01 T02330188  RH  076%=      5-min Rain = 0
KWE1 261406Z 18018KT 23/19 A3003 RMK A01 T02340188  RH  075%=      5-min Rain = 0
KWE1 261407Z 19020KT 23/19 A3003 RMK A01 T02340186  RH  074%=      5-min Rain = 0
KWE1 261408Z 18020KT 23/18 A3003 RMK A01 T02330184  RH  074%=      5-min Rain = 0
KWE1 261409Z 17020KT 23/18 A3003 RMK A01 T02330183  RH  074%=      5-min Rain = 0
KWE1 261410Z 18019G24KT 23/18 A3003 RMK A01 T02330183  RH  073%=      5-min Rain = 0
KWE1 261411Z 18020KT 23/18 A3003 RMK A01 T02340183  RH  073%=      5-min Rain = 0
KWE1 261412Z 18021KT 24/19 A3003 RMK A01 T02350185  RH  073%=      5-min Rain = 0
KWE1 261413Z 18022G27KT 24/19 A3003 RMK A01 T02360186  RH  074%=      5-min Rain = 0
KWE1 261414Z 18024KT 24/18 A3003 RMK A01 T02360184  RH  072%=      5-min Rain = 0
KWE1 261415Z 18021KT 24/18 A3003 RMK A01 T02350184  RH  073%=      5-min Rain = 0
KWE1 261416Z 18019KT 24/19 A3003 RMK A01 T02360185  RH  073%=      5-min Rain = 0
KWE1 261417Z 18023KT 24/19 A3003 RMK A01 T02370185  RH  073%=      5-min Rain = 0
KWE1 261418Z 18024KT 24/18 A3003 RMK A01 T02370183  RH  072%=      5-min Rain = 0
KWE1 261419Z 18023KT 24/18 A3003 RMK A01 T02360183  RH  072%=      5-min Rain = 0
KWE1 261420Z 19022KT 24/18 A3003 RMK A01 T02360183  RH  072%=      5-min Rain = 0
KWE1 261421Z 19021KT 24/18 A3003 RMK A01 T02360183  RH  072%=      5-min Rain = 0
KWE1 261422Z 19021KT 24/19 A3003 RMK A01 T02360185  RH  073%=      5-min Rain = 0
KWE1 261423Z 18022KT 24/18 A3003 RMK A01 T02360184  RH  073%=      5-min Rain = 0
KWE1 261424Z 19019KT 24/19 A3003 RMK A01 T02370185  RH  073%=      5-min Rain = 0
KWE1 261425Z 18018KT 24/19 A3003 RMK A01 T02380187  RH  073%=      5-min Rain = 0
KWE1 261426Z 18019KT 24/19 A3003 RMK A01 T02390185  RH  071%=      5-min Rain = 0
KWE1 261427Z 18017G22KT 24/19 A3003 RMK A01 T02400186  RH  072%=      5-min Rain = 0
KWE1 261428Z 17020KT 24/18 A3003 RMK A01 T02400184  RH  071%=      5-min Rain = 0
KWE1 261429Z 18018KT 24/19 A3003 RMK A01 T02400185  RH  071%=      5-min Rain = 0
KWE1 261430Z 18017KT 24/19 A3003 RMK A01 T02410187  RH  072%=      5-min Rain = 0
KWE1 261431Z 18016KT 24/19 A3003 RMK A01 T02420187  RH  071%=      5-min Rain = 0
KWE1 261432Z 18018KT 24/19 A3003 RMK A01 T02430185  RH  070%=      5-min Rain = 0
KWE1 261433Z 18020KT 24/18 A3004 RMK A01 T02420184  RH  070%=      5-min Rain = 0
KWE1 261434Z 18018KT 24/19 A3004 RMK A01 T02410186  RH  071%=      5-min Rain = 0
KWE1 261435Z 18020KT 24/19 A3004 RMK A01 T02400186  RH  071%=      5-min Rain = 0
KWE1 261436Z 18021KT 24/19 A3004 RMK A01 T02410185  RH  071%=      5-min Rain = 0
KWE1 261437Z 18019KT 24/18 A3004 RMK A01 T02410184  RH  070%=      5-min Rain = 0
KWE1 261438Z 18023KT 24/18 A3004 RMK A01 T02410183  RH  070%=      5-min Rain = 0
KWE1 261439Z 19023KT 24/18 A3004 RMK A01 T02400182  RH  070%=      5-min Rain = 0
KWE1 261440Z 18021KT 24/18 A3004 RMK A01 T02390181  RH  070%=      5-min Rain = 0
KWE1 261441Z 19019KT 24/18 A3004 RMK A01 T02400183  RH  071%=      5-min Rain = 0
KWE1 261442Z 18019KT 24/19 A3004 RMK A01 T02420185  RH  071%=      5-min Rain = 0
KWE1 261443Z 19020KT 24/19 A3004 RMK A01 T02440185  RH  069%=      5-min Rain = 0
KWE1 261444Z 18017KT 24/19 A3004 RMK A01 T02440186  RH  070%=      5-min Rain = 0
KWE1 261445Z 17018KT 25/19 A3004 RMK A01 T02450185  RH  069%=      5-min Rain = 0
KWE1 261446Z 19018G28KT 25/19 A3004 RMK A01 T02450186  RH  070%=      5-min Rain = 0
KWE1 261447Z 18022KT 25/19 A3003 RMK A01 T02460185  RH  069%=      5-min Rain = 0
KWE1 261448Z 19022KT 25/18 A3003 RMK A01 T02450183  RH  068%=      5-min Rain = 0
KWE1 261449Z 18019KT 24/18 A3003 RMK A01 T02430184  RH  069%=      5-min Rain = 0
KWE1 261450Z 18016KT 24/18 A3003 RMK A01 T02430184  RH  070%=      5-min Rain = 0
KWE1 261451Z 18016KT 24/19 A3003 RMK A01 T02430186  RH  070%=      5-min Rain = 0
KWE1 261452Z 19018KT 24/19 A3003 RMK A01 T02430185  RH  070%=      5-min Rain = 0
KWE1 261453Z 18018KT 24/18 A3003 RMK A01 T02430184  RH  069%=      5-min Rain = 0
KWE1 261454Z 18018KT 24/18 A3003 RMK A01 T02430182  RH  069%=      5-min Rain = 0
KWE1 261455Z 18018KT 24/18 A3003 RMK A01 T02430182  RH  068%=      5-min Rain = 0
KWE1 261456Z 18019KT 24/18 A3003 RMK A01 T02430182  RH  069%=      5-min Rain = 0
KWE1 261457Z 18019G24KT 24/18 A3003 RMK A01 T02440183  RH  069%=      5-min Rain = 0
KWE1 261458Z 17021KT 24/18 A3003 RMK A01 T02440182  RH  068%=      5-min Rain = 0
KWE1 261459Z 18020KT 25/18 A3002 RMK A01 T02450183  RH  068%=      5-min Rain = 0
KWE1 261500Z 17019KT 25/18 A3003 RMK A01 T02460184  RH  068%=      5-min Rain = 0
KWE1 261501Z 18020KT 25/18 A3002 RMK A01 T02470184  RH  068%=      5-min Rain = 0
KWE1 261502Z 19023KT 25/18 A3002 RMK A01 T02450182  RH  068%=      5-min Rain = 0
KWE1 261503Z 19017KT 24/18 A3002 RMK A01 T02440183  RH  069%=      5-min Rain = 0
KWE1 261504Z 18018KT 25/19 A3002 RMK A01 T02450185  RH  069%=      5-min Rain = 0
KWE1 261505Z 18018KT 25/19 A3002 RMK A01 T02470186  RH  068%=      5-min Rain = 0
KWE1 261506Z 17019KT 25/19 A3002 RMK A01 T02490185  RH  067%=      5-min Rain = 0
KWE1 261507Z 18021G26KT 25/19 A3003 RMK A01 T02500186  RH  067%=      5-min Rain = 0
KWE1 261508Z 19023KT 25/18 A3002 RMK A01 T02510184  RH  066%=      5-min Rain = 0
KWE1 261509Z 18021KT 25/18 A3002 RMK A01 T02500183  RH  067%=      5-min Rain = 0
KWE1 261510Z 18023KT 25/18 A3002 RMK A01 T02490184  RH  067%=      5-min Rain = 0
KWE1 261511Z 19022KT 25/18 A3002 RMK A01 T02500183  RH  066%=      5-min Rain = 0
KWE1 261512Z 19024KT 25/18 A3002 RMK A01 T02490183  RH  067%=      5-min Rain = 0
KWE1 261513Z 19024KT 25/18 A3002 RMK A01 T02480180  RH  066%=      5-min Rain = 0
KWE1 261514Z 19020G25KT 25/18 A3002 RMK A01 T02480182  RH  067%=      5-min Rain = 0
KWE1 261515Z 19018KT 25/18 A3002 RMK A01 T02480184  RH  067%=      5-min Rain = 0
KWE1 261516Z 18016KT 25/19 A3002 RMK A01 T02480185  RH  068%=      5-min Rain = 0
KWE1 261517Z 18019KT 25/18 A3002 RMK A01 T02500184  RH  067%=      5-min Rain = 0
KWE1 261518Z 17019G24KT 25/19 A3002 RMK A01 T02510186  RH  067%=      5-min Rain = 0
KWE1 261519Z 17022KT 25/18 A3002 RMK A01 T02530184  RH  066%=      5-min Rain = 0
KWE1 261520Z 18020KT 25/19 A3002 RMK A01 T02530185  RH  066%=      5-min Rain = 0
KWE1 261521Z 18019KT 25/18 A3002 RMK A01 T02520183  RH  065%=      5-min Rain = 0
KWE1 261522Z 18018G24KT 25/18 A3002 RMK A01 T02520184  RH  066%=      5-min Rain = 0
KWE1 261523Z 18025KT 25/18 A3002 RMK A01 T02510182  RH  065%=      5-min Rain = 0
KWE1 261524Z 18024KT 25/18 A3002 RMK A01 T02510181  RH  065%=      5-min Rain = 0
KWE1 261525Z 19022KT 25/18 A3002 RMK A01 T02510182  RH  066%=      5-min Rain = 0
KWE1 261526Z 19019KT 25/18 A3002 RMK A01 T02510183  RH  066%=      5-min Rain = 0
KWE1 261527Z 19018KT 25/18 A3002 RMK A01 T02510184  RH  066%=      5-min Rain = 0
KWE1 261528Z 18019KT 25/19 A3002 RMK A01 T02530185  RH  066%=      5-min Rain = 0
KWE1 261529Z 18018KT 25/19 A3002 RMK A01 T02540187  RH  066%=      5-min Rain = 0
KWE1 261530Z 18020KT 26/19 A3002 RMK A01 T02560187  RH  066%=      5-min Rain = 0
KWE1 261531Z 19022KT 26/19 A3002 RMK A01 T02560185  RH  065%=      5-min Rain = 0
KWE1 261532Z 19019KT 26/18 A3002 RMK A01 T02560184  RH  064%=      5-min Rain = 0
KWE1 261533Z 19019KT 26/18 A3002 RMK A01 T02550184  RH  065%=      5-min Rain = 0
KWE1 261534Z 19022KT 25/18 A3002 RMK A01 T02530183  RH  065%=      5-min Rain = 0
KWE1 261535Z 19022KT 25/19 A3002 RMK A01 T02530185  RH  066%=      5-min Rain = 0
KWE1 261536Z 19020KT 26/19 A3002 RMK A01 T02550185  RH  065%=      5-min Rain = 0
KWE1 261537Z 19018KT 26/19 A3002 RMK A01 T02550185  RH  065%=      5-min Rain = 0
KWE1 261538Z 19017KT 26/19 A3002 RMK A01 T02570188  RH  066%=      5-min Rain = 0
KWE1 261539Z 18019KT 26/19 A3002 RMK A01 T02600188  RH  065%=      5-min Rain = 0
KWE1 261540Z 18021KT 26/19 A3002 RMK A01 T02610185  RH  063%=      5-min Rain = 0
KWE1 261541Z 18021KT 26/18 A3002 RMK A01 T02600184  RH  063%=      5-min Rain = 0
KWE1 261542Z 18021KT 26/18 A3002 RMK A01 T02600184  RH  063%=      5-min Rain = 0
KWE1 261543Z 19020KT 26/18 A3002 RMK A01 T02590184  RH  063%=      5-min Rain = 0
KWE1 261544Z 19023KT 26/19 A3002 RMK A01 T02590185  RH  063%=      5-min Rain = 0
KWE1 261545Z 18021KT 26/18 A3002 RMK A01 T02580183  RH  063%=      5-min Rain = 0
KWE1 261546Z 19019KT 26/18 A3002 RMK A01 T02570183  RH  064%=      5-min Rain = 0
KWE1 261547Z 19022KT 26/18 A3002 RMK A01 T02560184  RH  064%=      5-min Rain = 0
KWE1 261548Z 18022KT 26/18 A3002 RMK A01 T02560183  RH  064%=      5-min Rain = 0
KWE1 261549Z 18021KT 26/18 A3002 RMK A01 T02570183  RH  064%=      5-min Rain = 0
KWE1 261550Z 18022KT 26/19 A3002 RMK A01 T02580185  RH  064%=      5-min Rain = 0
KWE1 261551Z 18021KT 26/18 A3002 RMK A01 T02590184  RH  063%=      5-min Rain = 0
KWE1 261552Z 18017KT 26/18 A3002 RMK A01 T02590184  RH  063%=      5-min Rain = 0
KWE1 261553Z 19017KT 26/18 A3002 RMK A01 T02580184  RH  064%=      5-min Rain = 0
KWE1 261554Z 19017KT 26/18 A3002 RMK A01 T02580184  RH  064%=      5-min Rain = 0
KWE1 261555Z 19016KT 26/19 A3002 RMK A01 T02560187  RH  065%=      5-min Rain = 0
KWE1 261556Z 19017KT 26/19 A3002 RMK A01 T02570185  RH  064%=      5-min Rain = 0
KWE1 261557Z 18020KT 26/19 A3002 RMK A01 T02580186  RH  065%=      5-min Rain = 0
KWE1 261558Z 19021KT 26/18 A3002 RMK A01 T02580184  RH  063%=      5-min Rain = 0
KWE1 261559Z 18024KT 26/19 A3002 RMK A01 T02590186  RH  064%=      5-min Rain = 0
KWE1 261600Z 19022KT 26/19 A3002 RMK A01 T02590185  RH  063%=      5-min Rain = 0
KWE1 261601Z 19020KT 26/18 A3002 RMK A01 T02600184  RH  063%=      5-min Rain = 0
KWE1 261602Z 19020KT 26/19 A3002 RMK A01 T02580186  RH  064%=      5-min Rain = 0
KWE1 261603Z 18021KT 26/19 A3002 RMK A01 T02590185  RH  064%=      5-min Rain = 0
KWE1 261604Z 19018KT 26/19 A3002 RMK A01 T02600186  RH  064%=      5-min Rain = 0
KWE1 261605Z 19019KT 26/19 A3002 RMK A01 T02600186  RH  063%=      5-min Rain = 0
KWE1 261606Z 18018KT 26/19 A3002 RMK A01 T02600187  RH  064%=      5-min Rain = 0
KWE1 261607Z 18018KT 26/19 A3002 RMK A01 T02600186  RH  064%=      5-min Rain = 0
KWE1 261608Z 18017KT 26/19 A3002 RMK A01 T02600186  RH  064%=      5-min Rain = 0
KWE1 261609Z 19020KT 26/19 A3002 RMK A01 T02600187  RH  064%=      5-min Rain = 0
KWE1 261610Z 19018KT 26/19 A3002 RMK A01 T02600185  RH  063%=      5-min Rain = 0
KWE1 261611Z 19015KT 26/19 A3002 RMK A01 T02600188  RH  064%=      5-min Rain = 0
KWE1 261612Z 18018KT 26/19 A3002 RMK A01 T02600187  RH  064%=      5-min Rain = 0
KWE1 261613Z 19019KT 26/19 A3002 RMK A01 T02610187  RH  064%=      5-min Rain = 0
KWE1 261614Z 19020KT 26/19 A3002 RMK A01 T02590185  RH  064%=      5-min Rain = 0
KWE1 261615Z 19019G24KT 26/19 A3002 RMK A01 T02570187  RH  065%=      5-min Rain = 0
KWE1 261616Z 19020KT 26/19 A3002 RMK A01 T02570186  RH  065%=      5-min Rain = 0
KWE1 261617Z 19020KT 26/19 A3002 RMK A01 T02570186  RH  065%=      5-min Rain = 0
KWE1 261618Z 19020KT 26/19 A3002 RMK A01 T02580185  RH  064%=      5-min Rain = 0
KWE1 261619Z 19019KT 26/19 A3001 RMK A01 T02590185  RH  064%=      5-min Rain = 0
KWE1 261620Z 19018KT 26/19 A3002 RMK A01 T02590185  RH  064%=      5-min Rain = 0
KWE1 261621Z 19020KT 26/18 A3001 RMK A01 T02580184  RH  064%=      5-min Rain = 0
KWE1 261622Z 18017KT 26/19 A3001 RMK A01 T02580185  RH  064%=      5-min Rain = 0
KWE1 261623Z 18018KT 26/19 A3001 RMK A01 T02590186  RH  064%=      5-min Rain = 0
KWE1 261624Z 18018G24KT 26/19 A3001 RMK A01 T02600186  RH  064%=      5-min Rain = 0
KWE1 261625Z 18019KT 26/19 A3001 RMK A01 T02610187  RH  064%=      5-min Rain = 0
KWE1 261626Z 19019KT 26/19 A3001 RMK A01 T02630189  RH  064%=      5-min Rain = 0
KWE1 261627Z 20018KT 26/19 A3001 RMK A01 T02640189  RH  064%=      5-min Rain = 0
KWE1 261628Z 19016KT 26/19 A3001 RMK A01 T02630188  RH  063%=      5-min Rain = 0
KWE1 261629Z 17015KT 26/19 A3001 RMK A01 T02620189  RH  064%=      5-min Rain = 0
KWE1 261630Z 18017KT 26/19 A3001 RMK A01 T02620187  RH  063%=      5-min Rain = 0
KWE1 261631Z 18019G24KT 26/19 A3001 RMK A01 T02640188  RH  063%=      5-min Rain = 0
KWE1 261632Z 19023KT 26/19 A3001 RMK A01 T02640185  RH  062%=      5-min Rain = 0
KWE1 261633Z 18018G23KT 26/18 A3001 RMK A01 T02620182  RH  062%=      5-min Rain = 0
KWE1 261634Z 18018KT 26/19 A3001 RMK A01 T02610186  RH  063%=      5-min Rain = 0
KWE1 261635Z 19018KT 26/19 A3001 RMK A01 T02630186  RH  063%=      5-min Rain = 0
KWE1 261636Z 18016KT 26/19 A3001 RMK A01 T02640188  RH  063%=      5-min Rain = 0
KWE1 261637Z 18017KT 27/19 A3001 RMK A01 T02650187  RH  062%=      5-min Rain = 0
KWE1 261638Z 19016KT 27/19 A3002 RMK A01 T02650189  RH  063%=      5-min Rain = 0
KWE1 261639Z 18021KT 27/19 A3001 RMK A01 T02650186  RH  062%=      5-min Rain = 0
KWE1 261640Z 19022KT 27/19 A3001 RMK A01 T02660185  RH  061%=      5-min Rain = 0
KWE1 261641Z 19022KT 27/19 A3001 RMK A01 T02670186  RH  061%=      5-min Rain = 0
KWE1 261642Z 19022KT 27/19 A3001 RMK A01 T02690186  RH  060%=      5-min Rain = 0
KWE1 261643Z 19019KT 27/19 A3001 RMK A01 T02700186  RH  060%=      5-min Rain = 0
KWE1 261644Z 19018KT 27/19 A3001 RMK A01 T02680186  RH  061%=      5-min Rain = 0
KWE1 261645Z 19019KT 27/19 A3001 RMK A01 T02670186  RH  061%=      5-min Rain = 0
KWE1 261646Z 18019KT 27/19 A3001 RMK A01 T02680188  RH  061%=      5-min Rain = 0
KWE1 261647Z 18017KT 27/19 A3001 RMK A01 T02680186  RH  061%=      5-min Rain = 0
KWE1 261648Z 19018KT 27/19 A3001 RMK A01 T02670186  RH  061%=      5-min Rain = 0
KWE1 261649Z 18017KT 27/19 A3001 RMK A01 T02670187  RH  062%=      5-min Rain = 0
KWE1 261650Z 19020KT 27/19 A3001 RMK A01 T02670187  RH  061%=      5-min Rain = 0
KWE1 261651Z 19020KT 27/18 A3001 RMK A01 T02650183  RH  061%=      5-min Rain = 0
KWE1 261652Z 19022KT 27/19 A3001 RMK A01 T02650185  RH  061%=      5-min Rain = 0
KWE1 261653Z 18019KT 27/19 A3001 RMK A01 T02660186  RH  061%=      5-min Rain = 0
KWE1 261654Z 18021KT 27/18 A3001 RMK A01 T02670183  RH  060%=      5-min Rain = 0
KWE1 261655Z 18016KT 27/18 A3001 RMK A01 T02660184  RH  060%=      5-min Rain = 0
KWE1 261656Z 18016KT 27/19 A3001 RMK A01 T02660185  RH  061%=      5-min Rain = 0
KWE1 261657Z 18017KT 27/19 A3001 RMK A01 T02670185  RH  061%=      5-min Rain = 0
KWE1 261658Z 18019KT 27/19 A30 RMK A01 T02670185  RH  061%=      5-min Rain = 0
KWE1 261659Z 18016KT 27/19 A3001 RMK A01 T02690185  RH  060%=      5-min Rain = 0
KWE1 261700Z 18019G25KT 27/19 A3001 RMK A01 T02700187  RH  060%=      5-min Rain = 0
KWE1 261701Z 17021G26KT 27/19 A3001 RMK A01 T02700186  RH  060%=      5-min Rain = 0
KWE1 261702Z 17018KT 27/19 A30 RMK A01 T02720188  RH  060%=      5-min Rain = 0
KWE1 261703Z 17018KT 27/19 A30 RMK A01 T02740187  RH  059%=      5-min Rain = 0
KWE1 261704Z 17018KT 27/19 A30 RMK A01 T02730186  RH  059%=      5-min Rain = 0
KWE1 261705Z 17018KT 27/19 A30 RMK A01 T02720186  RH  059%=      5-min Rain = 0
KWE1 261706Z 18015KT 27/19 A30 RMK A01 T02720187  RH  060%=      5-min Rain = 0
KWE1 261707Z 19016G21KT 27/19 A30 RMK A01 T02710188  RH  060%=      5-min Rain = 0
KWE1 261708Z 19017KT 27/19 A30 RMK A01 T02710190  RH  061%=      5-min Rain = 0
KWE1 261709Z 17019KT 27/19 A30 RMK A01 T02730189  RH  060%=      5-min Rain = 0
KWE1 261710Z 17017KT 27/19 A30 RMK A01 T02720187  RH  060%=      5-min Rain = 0
KWE1 261711Z 18019KT 27/19 A30 RMK A01 T02710188  RH  060%=      5-min Rain = 0
KWE1 261712Z 18020G26KT 27/19 A30 RMK A01 T02710185  RH  060%=      5-min Rain = 0
KWE1 261713Z 18023KT 27/19 A30 RMK A01 T02690185  RH  060%=      5-min Rain = 0
KWE1 261714Z 17022KT 27/18 A30 RMK A01 T02710184  RH  059%=      5-min Rain = 0
KWE1 261715Z 18019KT 27/19 A30 RMK A01 T02740188  RH  059%=      5-min Rain = 0
KWE1 261716Z 19019KT 28/19 A30 RMK A01 T02790190  RH  059%=      5-min Rain = 0
KWE1 261717Z 18018KT 28/19 A30 RMK A01 T02800190  RH  058%=      5-min Rain = 0
KWE1 261718Z 16018KT 28/19 A30 RMK A01 T02800191  RH  058%=      5-min Rain = 0
KWE1 261719Z 16018KT 28/19 A30 RMK A01 T02810189  RH  057%=      5-min Rain = 0
KWE1 261720Z 16018KT 28/19 A30 RMK A01 T02820189  RH  057%=      5-min Rain = 0
KWE1 261721Z 18016KT 28/19 A30 RMK A01 T02820191  RH  058%=      5-min Rain = 0
KWE1 261722Z 19017G22KT 28/19 A30 RMK A01 T02800192  RH  059%=      5-min Rain = 0
KWE1 261723Z 19020G25KT 28/19 A30 RMK A01 T02780190  RH  059%=      5-min Rain = 0
KWE1 261724Z 18018KT 28/19 A30 RMK A01 T02750188  RH  059%=      5-min Rain = 0
KWE1 261725Z 17020KT 28/19 A30 RMK A01 T02750187  RH  059%=      5-min Rain = 0
KWE1 261726Z 17019KT 28/19 A30 RMK A01 T02750187  RH  058%=      5-min Rain = 0
KWE1 261727Z 17019KT 28/19 A30 RMK A01 T02760187  RH  058%=      5-min Rain = 0
KWE1 261728Z 17018KT 28/19 A30 RMK A01 T02780189  RH  058%=      5-min Rain = 0
KWE1 261729Z 17021KT 28/19 A30 RMK A01 T02800189  RH  058%=      5-min Rain = 0
KWE1 261730Z 17020KT 28/19 A30 RMK A01 T02800188  RH  057%=      5-min Rain = 0
KWE1 261731Z 17017KT 28/19 A30 RMK A01 T02810188  RH  057%=      5-min Rain = 0
KWE1 261732Z 16015G20KT 28/19 A30 RMK A01 T02820190  RH  057%=      5-min Rain = 0
KWE1 261733Z 17015KT 28/19 A30 RMK A01 T02820187  RH  056%=      5-min Rain = 0
KWE1 261734Z 18019G24KT 28/19 A30 RMK A01 T02820191  RH  058%=      5-min Rain = 0
KWE1 261735Z 17023G28KT 28/19 A30 RMK A01 T02830186  RH  056%=      5-min Rain = 0
KWE1 261736Z 17019KT 28/19 A30 RMK A01 T02820187  RH  056%=      5-min Rain = 0
KWE1 261737Z 18019KT 28/19 A30 RMK A01 T02820187  RH  056%=      5-min Rain = 0
KWE1 261738Z 17022KT 28/19 A30 RMK A01 T02810188  RH  057%=      5-min Rain = 0
KWE1 261739Z 17022KT 28/19 A30 RMK A01 T02800185  RH  056%=      5-min Rain = 0
KWE1 261740Z 17023KT 28/19 A30 RMK A01 T02780186  RH  057%=      5-min Rain = 0
KWE1 261741Z 18021KT 28/19 A30 RMK A01 T02790185  RH  057%=      5-min Rain = 0
KWE1 261742Z 17019KT 28/19 A30 RMK A01 T02790187  RH  057%=      5-min Rain = 0
KWE1 261743Z 16018KT 28/19 A30 RMK A01 T02790186  RH  057%=      5-min Rain = 0
KWE1 261744Z 18016G21KT 28/19 A30 RMK A01 T02800187  RH  057%=      5-min Rain = 0
KWE1 261745Z 18022KT 28/19 A30 RMK A01 T02810188  RH  057%=      5-min Rain = 0
KWE1 261746Z 17020KT 28/19 A30 RMK A01 T02820186  RH  056%=      5-min Rain = 0
KWE1 261747Z 17018KT 28/19 A30 RMK A01 T02800186  RH  056%=      5-min Rain = 0
KWE1 261748Z 17016G22KT 28/19 A30 RMK A01 T02800188  RH  057%=      5-min Rain = 0
KWE1 261749Z 16020KT 28/19 A30 RMK A01 T02800188  RH  057%=      5-min Rain = 0
KWE1 261750Z 17018KT 28/19 A30 RMK A01 T02820189  RH  057%=      5-min Rain = 0
KWE1 261751Z 16021KT 28/19 A30 RMK A01 T02830188  RH  056%=      5-min Rain = 0
KWE1 261752Z 15023KT 28/19 A2999 RMK A01 T02820187  RH  056%=      5-min Rain = 0
KWE1 261753Z 17022KT 28/19 A30 RMK A01 T02810187  RH  057%=      5-min Rain = 0
KWE1 261754Z 16021KT 28/19 A30 RMK A01 T02820187  RH  056%=      5-min Rain = 0
KWE1 261755Z 16019KT 28/19 A30 RMK A01 T02820186  RH  056%=      5-min Rain = 0
KWE1 261756Z 16020G26KT 28/19 A2999 RMK A01 T02820186  RH  056%=      5-min Rain = 0
KWE1 261757Z 16024KT 28/19 A2999 RMK A01 T02820185  RH  056%=      5-min Rain = 0
KWE1 261758Z 17019G24KT 28/18 A2999 RMK A01 T02830184  RH  055%=      5-min Rain = 0
KWE1 261759Z 18020KT 28/19 A30 RMK A01 T02830188  RH  056%=      5-min Rain = 0
KWE1 261800Z 18017G23KT 28/19 A2999 RMK A01 T02830190  RH  057%=      5-min Rain = 0
KWE1 261801Z 17015KT 28/19 A2999 RMK A01 T02840191  RH  057%=      5-min Rain = 0
KWE1 261802Z 16019KT 29/19 A2999 RMK A01 T02870190  RH  056%=      5-min Rain = 0
KWE1 261803Z 16019KT 29/19 A2999 RMK A01 T02870186  RH  054%=      5-min Rain = 0
KWE1 261804Z 16017G22KT 29/19 A2999 RMK A01 T02860187  RH  055%=      5-min Rain = 0
KWE1 261805Z 17019G24KT 29/19 A2999 RMK A01 T02860187  RH  055%=      5-min Rain = 0
KWE1 261806Z 17023KT 29/19 A2999 RMK A01 T02880187  RH  055%=      5-min Rain = 0
KWE1 261807Z 17022KT 29/19 A2999 RMK A01 T02880187  RH  054%=      5-min Rain = 0
KWE1 261808Z 17022KT 29/19 A2999 RMK A01 T02880186  RH  054%=      5-min Rain = 0
KWE1 261809Z 18019KT 29/19 A2999 RMK A01 T02860186  RH  055%=      5-min Rain = 0
KWE1 261810Z 18020KT 29/19 A2999 RMK A01 T02850189  RH  056%=      5-min Rain = 0
KWE1 261811Z 18024KT 29/19 A2999 RMK A01 T02860187  RH  055%=      5-min Rain = 0
KWE1 261812Z 17020KT 29/19 A2999 RMK A01 T02860188  RH  055%=      5-min Rain = 0
KWE1 261813Z 17021KT 29/19 A2999 RMK A01 T02880188  RH  055%=      5-min Rain = 0
KWE1 261814Z 18019KT 29/19 A2999 RMK A01 T02890187  RH  054%=      5-min Rain = 0
KWE1 261815Z 18022KT 29/19 A2999 RMK A01 T02890190  RH  055%=      5-min Rain = 0
KWE1 261816Z 16018G23KT 29/19 A2999 RMK A01 T02890189  RH  055%=      5-min Rain = 0
KWE1 261817Z 17018KT 29/19 A2999 RMK A01 T02890188  RH  054%=      5-min Rain = 0
KWE1 261818Z 17017KT 29/19 A2999 RMK A01 T02890189  RH  055%=      5-min Rain = 0
KWE1 261819Z 17016KT 29/19 A2999 RMK A01 T02880189  RH  055%=      5-min Rain = 0
KWE1 261820Z 16015KT 29/19 A2999 RMK A01 T02880189  RH  055%=      5-min Rain = 0
KWE1 261821Z 16018KT 29/19 A2999 RMK A01 T02870190  RH  056%=      5-min Rain = 0
KWE1 261822Z 15018G23KT 29/19 A2999 RMK A01 T02860187  RH  055%=      5-min Rain = 0
KWE1 261823Z 16017KT 29/19 A2999 RMK A01 T02850188  RH  056%=      5-min Rain = 0
KWE1 261824Z 16020KT 28/19 A2999 RMK A01 T02840185  RH  055%=      5-min Rain = 0
KWE1 261825Z 17017KT 28/19 A2999 RMK A01 T02830186  RH  056%=      5-min Rain = 0
KWE1 261826Z 19020KT 28/19 A2999 RMK A01 T02840188  RH  056%=      5-min Rain = 0
KWE1 261827Z 19017KT 29/19 A2999 RMK A01 T02850187  RH  055%=      5-min Rain = 0
KWE1 261828Z 16018KT 28/19 A2999 RMK A01 T02840189  RH  056%=      5-min Rain = 0
KWE1 261829Z 16012KT 29/19 A2999 RMK A01 T02850189  RH  056%=      5-min Rain = 0
KWE1 261830Z 17012KT 29/19 A2999 RMK A01 T02860191  RH  056%=      5-min Rain = 0
KWE1 261831Z 17014KT 29/19 A2999 RMK A01 T02880192  RH  056%=      5-min Rain = 0
KWE1 261832Z 17018G25KT 29/19 A2999 RMK A01 T02900191  RH  055%=      5-min Rain = 0
KWE1 261833Z 16020G25KT 29/19 A2999 RMK A01 T02900190  RH  055%=      5-min Rain = 0
KWE1 261834Z 16017KT 29/19 A2999 RMK A01 T02900188  RH  054%=      5-min Rain = 0
KWE1 261835Z 17018KT 29/19 A2999 RMK A01 T02890190  RH  055%=      5-min Rain = 0
KWE1 261836Z 17019KT 29/19 A2999 RMK A01 T02890188  RH  054%=      5-min Rain = 0
KWE1 261837Z 17020KT 29/19 A2999 RMK A01 T02880189  RH  055%=      5-min Rain = 0
KWE1 261838Z 18017KT 29/19 A2999 RMK A01 T02900192  RH  056%=      5-min Rain = 0
KWE1 261839Z 19019KT 29/19 A2999 RMK A01 T02930194  RH  055%=      5-min Rain = 0
KWE1 261840Z 19018KT 29/19 A2999 RMK A01 T02940191  RH  054%=      5-min Rain = 0
KWE1 261841Z 19021KT 29/19 A2999 RMK A01 T02920191  RH  054%=      5-min Rain = 0
KWE1 261842Z 18019KT 29/19 A2999 RMK A01 T02900190  RH  055%=      5-min Rain = 0
KWE1 261843Z 17020KT 29/19 A2999 RMK A01 T02890191  RH  055%=      5-min Rain = 0
KWE1 261844Z 17022KT 29/19 A2999 RMK A01 T02880190  RH  056%=      5-min Rain = 0
KWE1 261845Z 17019KT 29/19 A2999 RMK A01 T02870191  RH  056%=      5-min Rain = 0
KWE1 261846Z 17017KT 29/19 A2999 RMK A01 T02870190  RH  056%=      5-min Rain = 0
KWE1 261847Z 17018KT 29/19 A2999 RMK A01 T02860191  RH  056%=      5-min Rain = 0
KWE1 261848Z 16018KT 29/19 A2999 RMK A01 T02870191  RH  056%=      5-min Rain = 0
KWE1 261849Z 16014KT 29/19 A2999 RMK A01 T02870192  RH  057%=      5-min Rain = 0
KWE1 261850Z 16016KT 29/19 A2998 RMK A01 T02870193  RH  057%=      5-min Rain = 0
KWE1 261851Z 16017KT 29/19 A2998 RMK A01 T02880192  RH  056%=      5-min Rain = 0
KWE1 261852Z 17020KT 29/19 A2998 RMK A01 T02890194  RH  056%=      5-min Rain = 0
KWE1 261853Z 17018G23KT 29/19 A2998 RMK A01 T02890191  RH  055%=      5-min Rain = 0
KWE1 261854Z 17019KT 29/19 A2998 RMK A01 T02880191  RH  056%=      5-min Rain = 0
KWE1 261855Z 17017KT 29/19 A2998 RMK A01 T02870192  RH  056%=      5-min Rain = 0
KWE1 261856Z 17020KT 29/19 A2998 RMK A01 T02880192  RH  056%=      5-min Rain = 0
KWE1 261857Z 18016G22KT 29/19 A2999 RMK A01 T02890193  RH  056%=      5-min Rain = 0
KWE1 261858Z 19018KT 29/19 A2998 RMK A01 T02900193  RH  056%=      5-min Rain = 0
KWE1 261859Z 18015G20KT 29/19 A2999 RMK A01 T02900193  RH  056%=      5-min Rain = 0
KWE1 261900Z 19017KT 29/19 A2998 RMK A01 T02910192  RH  055%=      5-min Rain = 0
KWE1 261901Z 18021KT 29/19 A2998 RMK A01 T02900194  RH  056%=      5-min Rain = 0
KWE1 261902Z 18022KT 29/19 A2998 RMK A01 T02890192  RH  056%=      5-min Rain = 0
KWE1 261903Z 17022KT 29/19 A2998 RMK A01 T02890192  RH  056%=      5-min Rain = 0
KWE1 261904Z 17020KT 29/19 A2998 RMK A01 T02890191  RH  056%=      5-min Rain = 0
KWE1 261905Z 17019KT 29/19 A2998 RMK A01 T02880189  RH  055%=      5-min Rain = 0
KWE1 261906Z 17018KT 29/19 A2998 RMK A01 T02880191  RH  056%=      5-min Rain = 0
KWE1 261907Z 18015KT 29/19 A2998 RMK A01 T02880192  RH  056%=      5-min Rain = 0
KWE1 261908Z 18018KT 29/19 A2998 RMK A01 T02880193  RH  056%=      5-min Rain = 0
KWE1 261909Z 17017KT 29/19 A2998 RMK A01 T02870192  RH  056%=      5-min Rain = 0
KWE1 261910Z 17016KT 29/20 A2998 RMK A01 T02870195  RH  057%=      5-min Rain = 0
KWE1 261911Z 17019KT 29/20 A2998 RMK A01 T02900195  RH  057%=      5-min Rain = 0
KWE1 261912Z 17021KT 29/19 A2998 RMK A01 T02900194  RH  056%=      5-min Rain = 0
KWE1 261913Z 16021KT 29/19 A2998 RMK A01 T02900193  RH  056%=      5-min Rain = 0
KWE1 261914Z 17021KT 29/19 A2998 RMK A01 T02890193  RH  056%=      5-min Rain = 0
KWE1 261915Z 18019KT 29/19 A2998 RMK A01 T02890193  RH  056%=      5-min Rain = 0
KWE1 261916Z 17019KT 29/19 A2998 RMK A01 T02890193  RH  056%=      5-min Rain = 0
KWE1 261917Z 18018KT 29/19 A2998 RMK A01 T02890194  RH  056%=      5-min Rain = 0
KWE1 261918Z 18018KT 29/19 A2998 RMK A01 T02890194  RH  057%=      5-min Rain = 0
KWE1 261919Z 16018KT 29/19 A2998 RMK A01 T02880193  RH  057%=      5-min Rain = 0
KWE1 261920Z 17018KT 29/19 A2998 RMK A01 T02880194  RH  057%=      5-min Rain = 0
KWE1 261921Z 17020KT 29/19 A2998 RMK A01 T02880194  RH  057%=      5-min Rain = 0
KWE1 261922Z 18018KT 29/20 A2998 RMK A01 T02890195  RH  057%=      5-min Rain = 0
KWE1 261923Z 17021KT 29/20 A2998 RMK A01 T02890195  RH  057%=      5-min Rain = 0
KWE1 261924Z 17022G27KT 29/19 A2998 RMK A01 T02900194  RH  056%=      5-min Rain = 0
KWE1 261925Z 16022KT 29/19 A2998 RMK A01 T02890194  RH  056%=      5-min Rain = 0
KWE1 261926Z 17022KT 29/19 A2998 RMK A01 T02880193  RH  056%=      5-min Rain = 0
KWE1 261927Z 16023KT 29/19 A2998 RMK A01 T02880192  RH  056%=      5-min Rain = 0
KWE1 261928Z 17022KT 29/19 A2998 RMK A01 T02870192  RH  057%=      5-min Rain = 0
KWE1 261929Z 18022KT 29/19 A2998 RMK A01 T02870194  RH  057%=      5-min Rain = 0
KWE1 261930Z 17018G24KT 29/20 A2998 RMK A01 T02890196  RH  057%=      5-min Rain = 0
KWE1 261931Z 17021G27KT 29/20 A2998 RMK A01 T02910195  RH  056%=      5-min Rain = 0
KWE1 261932Z 17023G30KT 29/19 A2998 RMK A01 T02900193  RH  056%=      5-min Rain = 0
KWE1 261933Z 18023KT 29/19 A2998 RMK A01 T02880193  RH  057%=      5-min Rain = 0
KWE1 261934Z 18021G26KT 29/19 A2998 RMK A01 T02870194  RH  057%=      5-min Rain = 0
KWE1 261935Z 18021G26KT 29/19 A2998 RMK A01 T02870193  RH  057%=      5-min Rain = 0
KWE1 261936Z 17022KT 29/19 A2998 RMK A01 T02860194  RH  057%=      5-min Rain = 0
KWE1 261937Z 17020KT 29/19 A2998 RMK A01 T02870193  RH  057%=      5-min Rain = 0
KWE1 261938Z 17018G23KT 29/19 A2998 RMK A01 T02870193  RH  057%=      5-min Rain = 0
KWE1 261939Z 17021G27KT 29/19 A2998 RMK A01 T02870194  RH  057%=      5-min Rain = 0
KWE1 261940Z 17021G27KT 29/19 A2998 RMK A01 T02870192  RH  057%=      5-min Rain = 0
KWE1 261941Z 17019KT 29/19 A2998 RMK A01 T02860192  RH  057%=      5-min Rain = 0
KWE1 261942Z 17021KT 29/19 A2998 RMK A01 T02860193  RH  057%=      5-min Rain = 0
KWE1 261943Z 17023KT 29/19 A2998 RMK A01 T02850191  RH  057%=      5-min Rain = 0
KWE1 261944Z 18020G25KT 28/19 A2998 RMK A01 T02830192  RH  057%=      5-min Rain = 0
KWE1 261945Z 18020G25KT 28/19 A2998 RMK A01 T02830194  RH  058%=      5-min Rain = 0
KWE1 261946Z 18020G25KT 28/19 A2998 RMK A01 T02830194  RH  058%=      5-min Rain = 0
KWE1 261947Z 17021KT 28/19 A2998 RMK A01 T02840193  RH  058%=      5-min Rain = 0
KWE1 261948Z 17020KT 28/19 A2998 RMK A01 T02840193  RH  058%=      5-min Rain = 0
KWE1 261949Z 17020KT 28/19 A2998 RMK A01 T02830192  RH  058%=      5-min Rain = 0
KWE1 261950Z 17018KT 28/19 A2998 RMK A01 T02830193  RH  058%=      5-min Rain = 0
KWE1 261951Z 17019KT 28/19 A2998 RMK A01 T02820193  RH  058%=      5-min Rain = 0
KWE1 261952Z 17018KT 28/19 A2998 RMK A01 T02820194  RH  059%=      5-min Rain = 0
KWE1 261953Z 19018KT 28/20 A2998 RMK A01 T02830195  RH  059%=      5-min Rain = 0
KWE1 261954Z 18020KT 28/19 A2998 RMK A01 T02820194  RH  059%=      5-min Rain = 0
KWE1 261955Z 18020KT 28/20 A2998 RMK A01 T02830195  RH  059%=      5-min Rain = 0
KWE1 261956Z 17020KT 28/19 A2998 RMK A01 T02830194  RH  059%=      5-min Rain = 0
KWE1 261957Z 18021KT 28/19 A2998 RMK A01 T02820192  RH  058%=      5-min Rain = 0
KWE1 261958Z 18018G24KT 28/19 A2998 RMK A01 T02810193  RH  059%=      5-min Rain = 0
KWE1 261959Z 17022KT 28/19 A2998 RMK A01 T02810192  RH  059%=      5-min Rain = 0
KWE1 262000Z 17018KT 28/19 A2998 RMK A01 T02810192  RH  058%=      5-min Rain = 0
KWE1 262001Z 18018G23KT 28/19 A2998 RMK A01 T02810193  RH  059%=      5-min Rain = 0
KWE1 262002Z 17017KT 28/19 A2998 RMK A01 T02810192  RH  059%=      5-min Rain = 0
KWE1 262003Z 17015KT 28/20 A2998 RMK A01 T02810195  RH  060%=      5-min Rain = 0
KWE1 262004Z 18017KT 28/20 A2998 RMK A01 T02820195  RH  059%=      5-min Rain = 0
KWE1 262005Z 18022KT 28/19 A2998 RMK A01 T02830194  RH  059%=      5-min Rain = 0
KWE1 262006Z 18021KT 28/19 A2998 RMK A01 T02820193  RH  059%=      5-min Rain = 0
KWE1 262007Z 18020KT 28/19 A2998 RMK A01 T02810193  RH  059%=      5-min Rain = 0
KWE1 262008Z 18019KT 28/19 A2998 RMK A01 T02800193  RH  059%=      5-min Rain = 0
KWE1 262009Z 17018KT 28/19 A2998 RMK A01 T02800194  RH  059%=      5-min Rain = 0
KWE1 262010Z 18020KT 28/19 A2998 RMK A01 T02800193  RH  059%=      5-min Rain = 0
KWE1 262011Z 18016G21KT 28/19 A2998 RMK A01 T02800193  RH  059%=      5-min Rain = 0
KWE1 262012Z 18017G22KT 28/19 A2998 RMK A01 T02810194  RH  059%=      5-min Rain = 0
KWE1 262013Z 18020KT 28/19 A2998 RMK A01 T02820194  RH  059%=      5-min Rain = 0
KWE1 262014Z 18020KT 28/19 A2998 RMK A01 T02820194  RH  059%=      5-min Rain = 0
KWE1 262015Z 19018KT 28/20 A2998 RMK A01 T02830196  RH  059%=      5-min Rain = 0
KWE1 262016Z 19018KT 28/20 A2998 RMK A01 T02840197  RH  059%=      5-min Rain = 0
KWE1 262017Z 19019KT 29/20 A2997 RMK A01 T02850195  RH  058%=      5-min Rain = 0
KWE1 262018Z 19019KT 29/20 A2997 RMK A01 T02850196  RH  059%=      5-min Rain = 0
KWE1 262019Z 18018KT 29/19 A2998 RMK A01 T02850194  RH  058%=      5-min Rain = 0
KWE1 262020Z 18016KT 29/20 A2998 RMK A01 T02850196  RH  059%=      5-min Rain = 0
KWE1 262021Z 18017KT 29/20 A2997 RMK A01 T02850197  RH  059%=      5-min Rain = 0
KWE1 262022Z 18016KT 29/20 A2997 RMK A01 T02850196  RH  058%=      5-min Rain = 0
KWE1 262023Z 17017KT 29/20 A2998 RMK A01 T02850197  RH  059%=      5-min Rain = 0
KWE1 262024Z 17020KT 29/20 A2997 RMK A01 T02860195  RH  058%=      5-min Rain = 0
KWE1 262025Z 18017KT 29/19 A2998 RMK A01 T02860194  RH  058%=      5-min Rain = 0
KWE1 262026Z 18017KT 29/20 A2998 RMK A01 T02870196  RH  058%=      5-min Rain = 0
KWE1 262027Z 17020KT 29/20 A2998 RMK A01 T02870196  RH  058%=      5-min Rain = 0
KWE1 262028Z 17019KT 29/19 A2998 RMK A01 T02860194  RH  058%=      5-min Rain = 0
KWE1 262029Z 17017G22KT 29/20 A2998 RMK A01 T02860196  RH  058%=      5-min Rain = 0
KWE1 262030Z 17019KT 29/20 A2998 RMK A01 T02850195  RH  058%=      5-min Rain = 0
KWE1 262031Z 17022KT 29/19 A2998 RMK A01 T02860194  RH  057%=      5-min Rain = 0
KWE1 262032Z 16017KT 29/19 A2998 RMK A01 T02850193  RH  058%=      5-min Rain = 0
KWE1 262033Z 17016KT 29/20 A2998 RMK A01 T02850195  RH  058%=      5-min Rain = 0
KWE1 262034Z 17020KT 29/20 A2998 RMK A01 T02850197  RH  059%=      5-min Rain = 0
KWE1 262035Z 17019G24KT 29/20 A2998 RMK A01 T02870196  RH  058%=      5-min Rain = 0
KWE1 262036Z 17020KT 29/20 A2998 RMK A01 T02860195  RH  058%=      5-min Rain = 0
KWE1 262037Z 17017KT 29/20 A2998 RMK A01 T02870196  RH  058%=      5-min Rain = 0
KWE1 262038Z 17020KT 29/20 A2997 RMK A01 T02870195  RH  058%=      5-min Rain = 0
KWE1 262039Z 17020KT 29/19 A2997 RMK A01 T02870194  RH  057%=      5-min Rain = 0
KWE1 262040Z 17019KT 29/20 A2997 RMK A01 T02860195  RH  058%=      5-min Rain = 0
KWE1 262041Z 18019KT 29/20 A2997 RMK A01 T02870195  RH  057%=      5-min Rain = 0
KWE1 262042Z 18017KT 29/20 A2998 RMK A01 T02870195  RH  058%=      5-min Rain = 0
KWE1 262043Z 17016KT 29/20 A2998 RMK A01 T02870199  RH  059%=      5-min Rain = 0
KWE1 262044Z 17017KT 29/20 A2997 RMK A01 T02890198  RH  058%=      5-min Rain = 0
KWE1 262045Z 17017KT 29/20 A2997 RMK A01 T02890199  RH  058%=      5-min Rain = 0
KWE1 262046Z 17020KT 29/20 A2997 RMK A01 T02890197  RH  057%=      5-min Rain = 0
KWE1 262047Z 18021KT 29/20 A2997 RMK A01 T02880196  RH  057%=      5-min Rain = 0
KWE1 262048Z 17016KT 29/20 A2997 RMK A01 T02870195  RH  058%=      5-min Rain = 0
KWE1 262049Z 16017G22KT 29/20 A2998 RMK A01 T02860196  RH  058%=      5-min Rain = 0
KWE1 262050Z 16017KT 29/19 A2997 RMK A01 T02860194  RH  058%=      5-min Rain = 0
KWE1 262051Z 17017KT 29/20 A2998 RMK A01 T02860195  RH  058%=      5-min Rain = 0
KWE1 262052Z 16016KT 29/20 A2997 RMK A01 T02850195  RH  058%=      5-min Rain = 0
KWE1 262053Z 16019KT 29/20 A2997 RMK A01 T02850195  RH  058%=      5-min Rain = 0
KWE1 262054Z 17019KT 28/20 A2997 RMK A01 T02840195  RH  058%=      5-min Rain = 0
KWE1 262055Z 17021KT 28/19 A2997 RMK A01 T02830193  RH  058%=      5-min Rain = 0
KWE1 262056Z 17018KT 28/19 A2997 RMK A01 T02820194  RH  059%=      5-min Rain = 0
KWE1 262057Z 18018KT 28/19 A2997 RMK A01 T02820194  RH  059%=      5-min Rain = 0
KWE1 262058Z 17019KT 28/19 A2997 RMK A01 T02820194  RH  059%=      5-min Rain = 0
KWE1 262059Z 18018KT 28/20 A2997 RMK A01 T02820195  RH  059%=      5-min Rain = 0
KWE1 262100Z 17016KT 28/20 A2997 RMK A01 T02830195  RH  059%=      5-min Rain = 0
KWE1 262101Z 17017KT 28/20 A2997 RMK A01 T02830195  RH  059%=      5-min Rain = 0
KWE1 262102Z 16014KT 28/19 A2997 RMK A01 T02830194  RH  059%=      5-min Rain = 0
KWE1 262103Z 17015KT 28/20 A2997 RMK A01 T02830196  RH  059%=      5-min Rain = 0
KWE1 262104Z 18014KT 28/20 A2997 RMK A01 T02840197  RH  060%=      5-min Rain = 0
KWE1 262105Z 18016G22KT 29/20 A2997 RMK A01 T02850199  RH  060%=      5-min Rain = 0
KWE1 262106Z 17020G26KT 29/20 A2997 RMK A01 T02870197  RH  058%=      5-min Rain = 0
KWE1 262107Z 17022KT 29/20 A2997 RMK A01 T02870196  RH  058%=      5-min Rain = 0
KWE1 262108Z 17020KT 29/20 A2997 RMK A01 T02870195  RH  058%=      5-min Rain = 0
KWE1 262109Z 17020KT 29/20 A2997 RMK A01 T02860195  RH  058%=      5-min Rain = 0
KWE1 262110Z 17019G24KT 29/19 A2997 RMK A01 T02860194  RH  058%=      5-min Rain = 0
KWE1 262111Z 17021KT 28/20 A2997 RMK A01 T02840195  RH  058%=      5-min Rain = 0
KWE1 262112Z 18020KT 28/19 A2997 RMK A01 T02840194  RH  058%=      5-min Rain = 0
KWE1 262113Z 18018KT 28/20 A2997 RMK A01 T02840196  RH  059%=      5-min Rain = 0
KWE1 262114Z 17020KT 28/20 A2997 RMK A01 T02840196  RH  059%=      5-min Rain = 0
KWE1 262115Z 18019KT 28/19 A2997 RMK A01 T02840194  RH  058%=      5-min Rain = 0
KWE1 262116Z 17021KT 28/20 A2997 RMK A01 T02830195  RH  059%=      5-min Rain = 0
KWE1 262117Z 17019KT 28/19 A2997 RMK A01 T02840194  RH  058%=      5-min Rain = 0
KWE1 262118Z 17016KT 28/20 A2997 RMK A01 T02830196  RH  059%=      5-min Rain = 0
KWE1 262119Z 17019KT 28/20 A2997 RMK A01 T02840195  RH  058%=      5-min Rain = 0
KWE1 262120Z 18018KT 29/20 A2997 RMK A01 T02850196  RH  058%=      5-min Rain = 0
KWE1 262121Z 18020KT 29/20 A2997 RMK A01 T02850195  RH  058%=      5-min Rain = 0
KWE1 262122Z 17017KT 28/19 A2997 RMK A01 T02840194  RH  058%=      5-min Rain = 0
KWE1 262123Z 17016KT 28/19 A2997 RMK A01 T02830194  RH  059%=      5-min Rain = 0
KWE1 262124Z 17017KT 28/20 A2997 RMK A01 T02830196  RH  059%=      5-min Rain = 0
KWE1 262125Z 18014KT 28/20 A2997 RMK A01 T02830196  RH  059%=      5-min Rain = 0
KWE1 262126Z 17016KT 28/20 A2996 RMK A01 T02840196  RH  059%=      5-min Rain = 0
KWE1 262127Z 17016KT 28/20 A2996 RMK A01 T02840195  RH  059%=      5-min Rain = 0
KWE1 262128Z 18014KT 28/20 A2996 RMK A01 T02840197  RH  059%=      5-min Rain = 0
KWE1 262129Z 18014KT 28/20 A2996 RMK A01 T02840198  RH  060%=      5-min Rain = 0
KWE1 262130Z 18017KT 28/20 A2996 RMK A01 T02840198  RH  060%=      5-min Rain = 0
KWE1 262131Z 17017G22KT 28/20 A2996 RMK A01 T02840195  RH  059%=      5-min Rain = 0
KWE1 262132Z 18017KT 28/20 A2996 RMK A01 T02840195  RH  059%=      5-min Rain = 0
KWE1 262133Z 18019KT 28/19 A2996 RMK A01 T02830194  RH  059%=      5-min Rain = 0
KWE1 262134Z 18019KT 28/19 A2996 RMK A01 T02820194  RH  059%=      5-min Rain = 0
KWE1 262135Z 17016KT 28/19 A2996 RMK A01 T02810194  RH  059%=      5-min Rain = 0
KWE1 262136Z 18017G22KT 28/19 A2996 RMK A01 T02800194  RH  059%=      5-min Rain = 0
KWE1 262137Z 18019KT 28/19 A2996 RMK A01 T02800193  RH  059%=      5-min Rain = 0
KWE1 262138Z 17019KT 28/19 A2996 RMK A01 T02800193  RH  059%=      5-min Rain = 0
KWE1 262139Z 18019KT 28/19 A2996 RMK A01 T02800193  RH  059%=      5-min Rain = 0
KWE1 262140Z 18017KT 28/19 A2996 RMK A01 T02800193  RH  059%=      5-min Rain = 0
KWE1 262141Z 18018KT 28/19 A2995 RMK A01 T02800193  RH  059%=      5-min Rain = 0
KWE1 262142Z 18020KT 28/19 A2995 RMK A01 T02810193  RH  059%=      5-min Rain = 0
KWE1 262143Z 18020KT 28/19 A2995 RMK A01 T02810194  RH  059%=      5-min Rain = 0
KWE1 262144Z 18017KT 28/19 A2995 RMK A01 T02810193  RH  059%=      5-min Rain = 0
KWE1 262145Z 17016KT 28/19 A2995 RMK A01 T02810193  RH  059%=      5-min Rain = 0
KWE1 262146Z 18013KT 28/20 A2995 RMK A01 T02810195  RH  060%=      5-min Rain = 0
KWE1 262147Z 18012KT 28/20 A2995 RMK A01 T02820196  RH  060%=      5-min Rain = 0
KWE1 262148Z 18014KT 28/20 A2995 RMK A01 T02830196  RH  059%=      5-min Rain = 0
KWE1 262149Z 18015KT 28/20 A2995 RMK A01 T02830195  RH  059%=      5-min Rain = 0
KWE1 262150Z 18015KT 28/19 A2995 RMK A01 T02830194  RH  059%=      5-min Rain = 0
KWE1 262151Z 18016KT 28/19 A2995 RMK A01 T02830193  RH  058%=      5-min Rain = 0
KWE1 262152Z 17015KT 28/19 A2995 RMK A01 T02830193  RH  058%=      5-min Rain = 0
KWE1 262153Z 18014KT 28/19 A2995 RMK A01 T02830194  RH  058%=      5-min Rain = 0
KWE1 262154Z 17015KT 28/19 A2995 RMK A01 T02830194  RH  058%=      5-min Rain = 0
KWE1 262155Z 19013KT 28/20 A2995 RMK A01 T02830195  RH  059%=      5-min Rain = 0
KWE1 262156Z 18013KT 28/20 A2995 RMK A01 T02840196  RH  059%=      5-min Rain = 0
KWE1 262157Z 17013KT 28/20 A2995 RMK A01 T02840196  RH  059%=      5-min Rain = 0
KWE1 262158Z 18014KT 28/20 A2994 RMK A01 T02840196  RH  059%=      5-min Rain = 0
KWE1 262159Z 17013KT 28/20 A2994 RMK A01 T02840197  RH  059%=      5-min Rain = 0
KWE1 262200Z 17012KT 28/20 A2994 RMK A01 T02840197  RH  059%=      5-min Rain = 0
KWE1 262201Z 17011KT 29/20 A2994 RMK A01 T02850198  RH  059%=      5-min Rain = 0
KWE1 262202Z 16011KT 28/20 A2994 RMK A01 T02840197  RH  059%=      5-min Rain = 0
KWE1 262203Z 16012KT 28/20 A2994 RMK A01 T02840197  RH  059%=      5-min Rain = 0
KWE1 262204Z 16012KT 28/20 A2994 RMK A01 T02840197  RH  059%=      5-min Rain = 0
KWE1 262205Z 18011KT 28/20 A2994 RMK A01 T02840198  RH  060%=      5-min Rain = 0
KWE1 262206Z 18010KT 28/20 A2994 RMK A01 T02840199  RH  060%=      5-min Rain = 0
KWE1 262207Z 17011KT 28/20 A2993 RMK A01 T02830199  RH  060%=      5-min Rain = 0
KWE1 262208Z 17015KT 28/20 A2993 RMK A01 T02830197  RH  059%=      5-min Rain = 0
KWE1 262209Z 16012KT 28/20 A2993 RMK A01 T02830195  RH  059%=      5-min Rain = 0
KWE1 262210Z 15012KT 28/20 A2993 RMK A01 T02830197  RH  060%=      5-min Rain = 0
KWE1 262211Z 16010KT 28/20 A2993 RMK A01 T02830198  RH  060%=      5-min Rain = 0
KWE1 262212Z 17012KT 28/20 A2993 RMK A01 T02840198  RH  060%=      5-min Rain = 0
KWE1 262213Z 17012KT 28/20 A2993 RMK A01 T02840195  RH  059%=      5-min Rain = 0
KWE1 262214Z 17015KT 28/20 A2993 RMK A01 T02840195  RH  059%=      5-min Rain = 0
KWE1 262215Z 17015KT 28/19 A2993 RMK A01 T02840193  RH  058%=      5-min Rain = 0
KWE1 262216Z 17013KT 29/19 A2993 RMK A01 T02850194  RH  058%=      5-min Rain = 0
KWE1 262217Z 17011KT 28/20 A2993 RMK A01 T02840195  RH  058%=      5-min Rain = 0
KWE1 262218Z 17013KT 28/20 A2993 RMK A01 T02840195  RH  058%=      5-min Rain = 0
KWE1 262219Z 17013KT 28/20 A2993 RMK A01 T02840195  RH  058%=      5-min Rain = 0
KWE1 262220Z 17013KT 28/20 A2993 RMK A01 T02840195  RH  058%=      5-min Rain = 0
KWE1 262221Z 17013KT 28/19 A2993 RMK A01 T02840193  RH  058%=      5-min Rain = 0
KWE1 262222Z 17012KT 28/19 A2993 RMK A01 T02840192  RH  058%=      5-min Rain = 0
KWE1 262223Z 17015KT 28/19 A2993 RMK A01 T02830192  RH  058%=      5-min Rain = 0
KWE1 262224Z 18015KT 28/19 A2993 RMK A01 T02830192  RH  058%=      5-min Rain = 0
KWE1 262225Z 18013KT 28/19 A2993 RMK A01 T02840190  RH  057%=      5-min Rain = 0
KWE1 262226Z 17010KT 29/19 A2993 RMK A01 T02850192  RH  057%=      5-min Rain = 0
KWE1 262227Z 17011KT 29/19 A2993 RMK A01 T02850192  RH  057%=      5-min Rain = 0
KWE1 262228Z 17013KT 29/19 A2993 RMK A01 T02860191  RH  057%=      5-min Rain = 0
KWE1 262229Z 17014KT 29/19 A2993 RMK A01 T02860191  RH  056%=      5-min Rain = 0
KWE1 262230Z 17013KT 29/19 A2993 RMK A01 T02850191  RH  057%=      5-min Rain = 0
KWE1 262231Z 18015KT 29/19 A2993 RMK A01 T02850190  RH  056%=      5-min Rain = 0
KWE1 262232Z 17012KT 29/19 A2993 RMK A01 T02850189  RH  056%=      5-min Rain = 0
KWE1 262233Z 18013KT 29/19 A2993 RMK A01 T02850190  RH  056%=      5-min Rain = 0
KWE1 262234Z 17014KT 29/19 A2993 RMK A01 T02850188  RH  056%=      5-min Rain = 0
KWE1 262235Z 18014KT 28/19 A2993 RMK A01 T02840189  RH  056%=      5-min Rain = 0
KWE1 262236Z 17012KT 28/19 A2993 RMK A01 T02840189  RH  056%=      5-min Rain = 0
KWE1 262237Z 17013KT 28/19 A2993 RMK A01 T02840190  RH  057%=      5-min Rain = 0
KWE1 262238Z 17014KT 28/19 A2993 RMK A01 T02840190  RH  057%=      5-min Rain = 0
KWE1 262239Z 17013KT 28/19 A2993 RMK A01 T02840189  RH  056%=      5-min Rain = 0
KWE1 262240Z 18014KT 28/19 A2993 RMK A01 T02840190  RH  057%=      5-min Rain = 0
KWE1 262241Z 17016KT 28/19 A2993 RMK A01 T02840189  RH  056%=      5-min Rain = 0
KWE1 262242Z 16014KT 28/19 A2993 RMK A01 T02840188  RH  056%=      5-min Rain = 0
KWE1 262243Z 17015KT 28/19 A2993 RMK A01 T02840188  RH  056%=      5-min Rain = 0
KWE1 262244Z 16012KT 29/19 A2993 RMK A01 T02850189  RH  056%=      5-min Rain = 0
KWE1 262245Z 17013KT 28/19 A2993 RMK A01 T02840188  RH  056%=      5-min Rain = 0
KWE1 262246Z 17013KT 29/19 A2993 RMK A01 T02850189  RH  056%=      5-min Rain = 0
KWE1 262247Z 17016KT 28/19 A2993 RMK A01 T02840188  RH  056%=      5-min Rain = 0
KWE1 262248Z 17016KT 28/19 A2993 RMK A01 T02840188  RH  056%=      5-min Rain = 0
KWE1 262249Z 18013KT 28/19 A2992 RMK A01 T02840188  RH  056%=      5-min Rain = 0
KWE1 262250Z 17013KT 28/19 A2993 RMK A01 T02840190  RH  057%=      5-min Rain = 0
KWE1 262251Z 17012KT 28/19 A2993 RMK A01 T02840190  RH  057%=      5-min Rain = 0
KWE1 262252Z 17011KT 28/19 A2993 RMK A01 T02840190  RH  057%=      5-min Rain = 0
KWE1 262253Z 16009KT 28/19 A2993 RMK A01 T02840191  RH  057%=      5-min Rain = 0
KWE1 262254Z 17010KT 28/19 A2993 RMK A01 T02840191  RH  057%=      5-min Rain = 0
KWE1 262255Z 17011KT 28/19 A2993 RMK A01 T02840190  RH  057%=      5-min Rain = 0
KWE1 262256Z 17013KT 28/19 A2993 RMK A01 T02840190  RH  057%=      5-min Rain = 0
KWE1 262257Z 17012KT 28/19 A2993 RMK A01 T02840190  RH  057%=      5-min Rain = 0
KWE1 262258Z 18013KT 28/19 A2993 RMK A01 T02840190  RH  057%=      5-min Rain = 0
KWE1 262259Z 17016KT 28/19 A2993 RMK A01 T02840190  RH  057%=      5-min Rain = 0
KWE1 262300Z 17012KT 28/19 A2993 RMK A01 T02840190  RH  057%=      5-min Rain = 0
KWE1 262301Z 18014KT 28/19 A2993 RMK A01 T02840191  RH  057%=      5-min Rain = 0
KWE1 262302Z 15012KT 28/19 A2993 RMK A01 T02840190  RH  057%=      5-min Rain = 0
KWE1 262303Z 16011KT 28/19 A2993 RMK A01 T02840190  RH  057%=      5-min Rain = 0
KWE1 262304Z 16011KT 28/19 A2992 RMK A01 T02840190  RH  057%=      5-min Rain = 0
KWE1 262305Z 16010KT 28/19 A2992 RMK A01 T02840192  RH  058%=      5-min Rain = 0
KWE1 262306Z 15012KT 28/19 A2992 RMK A01 T02830192  RH  058%=      5-min Rain = 0
KWE1 262307Z 16011KT 28/19 A2992 RMK A01 T02840191  RH  057%=      5-min Rain = 0
KWE1 262308Z 17011KT 28/19 A2992 RMK A01 T02830191  RH  057%=      5-min Rain = 0
KWE1 262309Z 16012KT 28/19 A2992 RMK A01 T02840191  RH  057%=      5-min Rain = 0
KWE1 262310Z 16012KT 28/19 A2992 RMK A01 T02830191  RH  057%=      5-min Rain = 0
KWE1 262311Z 17012KT 28/19 A2992 RMK A01 T02830192  RH  058%=      5-min Rain = 0
KWE1 262312Z 17011KT 28/19 A2992 RMK A01 T02830193  RH  058%=      5-min Rain = 0
KWE1 262313Z 16011KT 28/19 A2992 RMK A01 T02830191  RH  057%=      5-min Rain = 0
KWE1 262314Z 16012KT 28/19 A2992 RMK A01 T02830192  RH  058%=      5-min Rain = 0
KWE1 262315Z 17011G16KT 28/19 A2992 RMK A01 T02830192  RH  058%=      5-min Rain = 0
KWE1 262316Z 17014KT 28/19 A2992 RMK A01 T02830191  RH  057%=      5-min Rain = 0
KWE1 262317Z 17014KT 28/19 A2992 RMK A01 T02830189  RH  057%=      5-min Rain = 0
KWE1 262318Z 17013KT 28/19 A2992 RMK A01 T02830190  RH  057%=      5-min Rain = 0
KWE1 262319Z 17014KT 28/19 A2992 RMK A01 T02830190  RH  057%=      5-min Rain = 0
KWE1 262320Z 17011KT 28/19 A2992 RMK A01 T02830191  RH  057%=      5-min Rain = 0
KWE1 262321Z 17012KT 28/19 A2992 RMK A01 T02830192  RH  058%=      5-min Rain = 0
KWE1 262322Z 17015KT 28/19 A2991 RMK A01 T02830190  RH  057%=      5-min Rain = 0
KWE1 262323Z 17014KT 28/19 A2991 RMK A01 T02830187  RH  056%=      5-min Rain = 0
KWE1 262324Z 17014KT 28/19 A2991 RMK A01 T02830189  RH  057%=      5-min Rain = 0
KWE1 262325Z 16012KT 28/19 A2991 RMK A01 T02830190  RH  057%=      5-min Rain = 0
KWE1 262326Z 17012KT 28/19 A2991 RMK A01 T02830191  RH  057%=      5-min Rain = 0
KWE1 262327Z 16012KT 28/19 A2991 RMK A01 T02830191  RH  058%=      5-min Rain = 0
KWE1 262328Z 16011KT 28/19 A2991 RMK A01 T02830191  RH  058%=      5-min Rain = 0
KWE1 262329Z 16012KT 28/19 A2991 RMK A01 T02830192  RH  058%=      5-min Rain = 0
KWE1 262330Z 16014KT 28/19 A2991 RMK A01 T02820190  RH  057%=      5-min Rain = 0
KWE1 262331Z 16011KT 28/19 A2991 RMK A01 T02820192  RH  058%=      5-min Rain = 0
KWE1 262332Z 16011KT 28/19 A2991 RMK A01 T02820192  RH  058%=      5-min Rain = 0
KWE1 262333Z 16013KT 28/19 A2991 RMK A01 T02820192  RH  058%=      5-min Rain = 0
KWE1 262334Z 15013KT 28/19 A2991 RMK A01 T02820192  RH  058%=      5-min Rain = 0
KWE1 262335Z 15014KT 28/19 A2991 RMK A01 T02820191  RH  058%=      5-min Rain = 0
KWE1 262336Z 16015KT 28/19 A299 RMK A01 T02820190  RH  058%=      5-min Rain = 0
KWE1 262337Z 15013KT 28/19 A2991 RMK A01 T02820190  RH  058%=      5-min Rain = 0
KWE1 262338Z 16012KT 28/19 A2991 RMK A01 T02820191  RH  058%=      5-min Rain = 0
KWE1 262339Z 15013KT 28/19 A2991 RMK A01 T02820192  RH  058%=      5-min Rain = 0
KWE1 262340Z 15012KT 28/19 A2991 RMK A01 T02820192  RH  058%=      5-min Rain = 0
KWE1 262341Z 15011KT 28/19 A2991 RMK A01 T02810193  RH  059%=      5-min Rain = 0
KWE1 262342Z 16013KT 28/19 A2991 RMK A01 T02810194  RH  059%=      5-min Rain = 0
KWE1 262343Z 15013KT 28/19 A2991 RMK A01 T02810192  RH  059%=      5-min Rain = 0
KWE1 262344Z 16011KT 28/19 A2991 RMK A01 T02810192  RH  059%=      5-min Rain = 0
KWE1 262345Z 15010KT 28/19 A2991 RMK A01 T02810194  RH  059%=      5-min Rain = 0
KWE1 262346Z 16009KT 28/19 A2991 RMK A01 T02800194  RH  060%=      5-min Rain = 0
KWE1 262347Z 15009KT 28/20 A2991 RMK A01 T02800195  RH  060%=      5-min Rain = 0
KWE1 262348Z 16010G15KT 28/20 A2991 RMK A01 T02790196  RH  060%=      5-min Rain = 0
KWE1 262349Z 16011KT 28/19 A2991 RMK A01 T02790192  RH  059%=      5-min Rain = 0
KWE1 262350Z 16010KT 28/19 A2991 RMK A01 T02790192  RH  059%=      5-min Rain = 0
KWE1 262351Z 16010KT 28/19 A2991 RMK A01 T02790193  RH  059%=      5-min Rain = 0
KWE1 262352Z 17010KT 28/19 A2991 RMK A01 T02790193  RH  059%=      5-min Rain = 0
KWE1 262353Z 17010KT 28/19 A2991 RMK A01 T02790192  RH  059%=      5-min Rain = 0
KWE1 262354Z 17011KT 28/19 A2991 RMK A01 T02800192  RH  059%=      5-min Rain = 0
KWE1 262355Z 17011KT 28/19 A2991 RMK A01 T02800192  RH  059%=      5-min Rain = 0
KWE1 262356Z 16010KT 28/19 A2991 RMK A01 T02800192  RH  059%=      5-min Rain = 0
KWE1 262357Z 16010KT 28/19 A2991 RMK A01 T02800193  RH  059%=      5-min Rain = 0
KWE1 262358Z 17011KT 28/19 A2991 RMK A01 T02800192  RH  059%=      5-min Rain = 0
KWE1 262359Z 16012KT 28/19 A299 RMK A01 T02800191  RH  059%=      5-min Rain = 0
KWE1 270000Z 15010KT 28/19 A299 RMK A01 T02800193  RH  059%=      5-min Rain = 0
KWE1 270001Z 16012KT 28/19 A299 RMK A01 T02800193  RH  059%=      5-min Rain = 0
KWE1 270002Z 15012KT 28/19 A299 RMK A01 T02790193  RH  059%=      5-min Rain = 0
KWE1 270003Z 16013KT 28/19 A299 RMK A01 T02790192  RH  059%=      5-min Rain = 0
KWE1 270004Z 15011KT 28/19 A299 RMK A01 T02790191  RH  059%=      5-min Rain = 0
KWE1 270005Z 15011KT 28/19 A299 RMK A01 T02790193  RH  060%=      5-min Rain = 0
KWE1 270006Z 15011KT 28/19 A2989 RMK A01 T02780193  RH  060%=      5-min Rain = 0
KWE1 270007Z 15011KT 28/19 A2989 RMK A01 T02780193  RH  060%=      5-min Rain = 0
KWE1 270008Z 15010KT 28/19 A2989 RMK A01 T02780194  RH  060%=      5-min Rain = 0
KWE1 270009Z 15012KT 28/19 A2989 RMK A01 T02770194  RH  061%=      5-min Rain = 0
KWE1 270010Z 15011KT 28/19 A2989 RMK A01 T02770193  RH  060%=      5-min Rain = 0
KWE1 270011Z 15012KT 28/19 A2989 RMK A01 T02770193  RH  060%=      5-min Rain = 0
KWE1 270012Z 15011KT 28/19 A2989 RMK A01 T02760192  RH  060%=      5-min Rain = 0
KWE1 270013Z 15011KT 28/19 A2989 RMK A01 T02760192  RH  060%=      5-min Rain = 0
KWE1 270014Z 15011KT 28/19 A2989 RMK A01 T02760191  RH  060%=      5-min Rain = 0
KWE1 270015Z 15010KT 28/19 A2989 RMK A01 T02760192  RH  060%=      5-min Rain = 0
KWE1 270016Z 15010KT 28/19 A2989 RMK A01 T02760193  RH  061%=      5-min Rain = 0
KWE1 270017Z 15011KT 28/19 A2989 RMK A01 T02750193  RH  061%=      5-min Rain = 0
KWE1 270018Z 15010KT 28/19 A2989 RMK A01 T02750194  RH  061%=      5-min Rain = 0
KWE1 270019Z 16009KT 28/19 A2989 RMK A01 T02750193  RH  061%=      5-min Rain = 0
KWE1 270020Z 15010KT 27/19 A2988 RMK A01 T02740194  RH  061%=      5-min Rain = 0
KWE1 270021Z 14011KT 27/19 A2988 RMK A01 T02740192  RH  061%=      5-min Rain = 0
KWE1 270022Z 15010KT 27/19 A2988 RMK A01 T02740193  RH  061%=      5-min Rain = 0
KWE1 270023Z 15010KT 27/19 A2988 RMK A01 T02740194  RH  062%=      5-min Rain = 0
KWE1 270024Z 15011KT 27/19 A2988 RMK A01 T02740194  RH  062%=      5-min Rain = 0
KWE1 270025Z 15012KT 27/19 A2988 RMK A01 T02730194  RH  062%=      5-min Rain = 0
KWE1 270026Z 15011KT 27/19 A2988 RMK A01 T02740194  RH  062%=      5-min Rain = 0
KWE1 270027Z 14010KT 27/19 A2988 RMK A01 T02730194  RH  062%=      5-min Rain = 0
KWE1 270028Z 15010KT 27/20 A2988 RMK A01 T02730195  RH  063%=      5-min Rain = 0
KWE1 270029Z 15010KT 27/20 A2988 RMK A01 T02720195  RH  063%=      5-min Rain = 0
KWE1 270030Z 15010KT 27/20 A2988 RMK A01 T02720195  RH  063%=      5-min Rain = 0
KWE1 270031Z 15012KT 27/20 A2988 RMK A01 T02720196  RH  063%=      5-min Rain = 0
KWE1 270032Z 15012KT 27/19 A2988 RMK A01 T02720193  RH  062%=      5-min Rain = 0
KWE1 270033Z 15012KT 27/19 A2988 RMK A01 T02720194  RH  062%=      5-min Rain = 0
KWE1 270034Z 15011KT 27/19 A2988 RMK A01 T02720194  RH  062%=      5-min Rain = 0
KWE1 270035Z 15012KT 27/19 A2988 RMK A01 T02720193  RH  062%=      5-min Rain = 0
KWE1 270036Z 15012KT 27/19 A2988 RMK A01 T02720194  RH  062%=      5-min Rain = 0
KWE1 270037Z 15011KT 27/19 A2987 RMK A01 T02710194  RH  062%=      5-min Rain = 0
KWE1 270038Z 15012KT 27/19 A2987 RMK A01 T02710194  RH  063%=      5-min Rain = 0
KWE1 270039Z 14012KT 27/19 A2987 RMK A01 T02700194  RH  063%=      5-min Rain = 0
KWE1 270040Z 15012KT 27/19 A2987 RMK A01 T02690193  RH  063%=      5-min Rain = 0
KWE1 270041Z 14012KT 27/19 A2987 RMK A01 T02690193  RH  063%=      5-min Rain = 0
KWE1 270042Z 15012KT 27/19 A2987 RMK A01 T02690193  RH  063%=      5-min Rain = 0
KWE1 270043Z 15011KT 27/19 A2987 RMK A01 T02700194  RH  063%=      5-min Rain = 0
KWE1 270044Z 15011KT 27/19 A2988 RMK A01 T02690193  RH  063%=      5-min Rain = 0
KWE1 270045Z 15011KT 27/19 A2987 RMK A01 T02690193  RH  063%=      5-min Rain = 0
KWE1 270046Z 15012KT 27/19 A2987 RMK A01 T02690193  RH  063%=      5-min Rain = 0
KWE1 270047Z 15011KT 27/19 A2987 RMK A01 T02680193  RH  063%=      5-min Rain = 0
KWE1 270048Z 15011KT 27/19 A2987 RMK A01 T02680193  RH  063%=      5-min Rain = 0
KWE1 270049Z 15013KT 27/19 A2987 RMK A01 T02680193  RH  063%=      5-min Rain = 0
KWE1 270050Z 15012KT 27/19 A2987 RMK A01 T02680193  RH  063%=      5-min Rain = 0
KWE1 270051Z 15011KT 27/19 A2987 RMK A01 T02680193  RH  063%=      5-min Rain = 0
KWE1 270052Z 15012KT 27/19 A2987 RMK A01 T02680193  RH  064%=      5-min Rain = 0
KWE1 270053Z 15011KT 27/19 A2988 RMK A01 T02670193  RH  064%=      5-min Rain = 0
KWE1 270054Z 15011KT 27/19 A2988 RMK A01 T02670193  RH  064%=      5-min Rain = 0
KWE1 270055Z 15011KT 27/19 A2988 RMK A01 T02670194  RH  064%=      5-min Rain = 0
KWE1 270056Z 16010KT 27/19 A2988 RMK A01 T02670193  RH  064%=      5-min Rain = 0
KWE1 270057Z 15011KT 27/19 A2988 RMK A01 T02670193  RH  064%=      5-min Rain = 0
KWE1 270058Z 15011KT 27/19 A2988 RMK A01 T02670192  RH  063%=      5-min Rain = 0
KWE1 270059Z 15013KT 27/19 A2988 RMK A01 T02670192  RH  063%=      5-min Rain = 0
KWE1 270100Z 15012KT 27/19 A2988 RMK A01 T02680191  RH  063%=      5-min Rain = 0
KWE1 270101Z 15010KT 27/19 A2988 RMK A01 T02680192  RH  063%=      5-min Rain = 0
KWE1 270102Z 15013KT 27/19 A2988 RMK A01 T02680192  RH  063%=      5-min Rain = 0
KWE1 270103Z 15010KT 27/19 A2988 RMK A01 T02680192  RH  063%=      5-min Rain = 0
KWE1 270104Z 15011KT 27/19 A2988 RMK A01 T02680193  RH  064%=      5-min Rain = 0
KWE1 270105Z 15011KT 27/19 A2988 RMK A01 T02670192  RH  063%=      5-min Rain = 0
KWE1 270106Z 15011KT 27/19 A2988 RMK A01 T02670192  RH  063%=      5-min Rain = 0
KWE1 270107Z 15011KT 27/19 A2988 RMK A01 T02670192  RH  063%=      5-min Rain = 0
KWE1 270108Z 15011KT 27/19 A2988 RMK A01 T02670192  RH  063%=      5-min Rain = 0
KWE1 270109Z 15013KT 27/19 A2988 RMK A01 T02670191  RH  063%=      5-min Rain = 0
KWE1 270110Z 15011KT 27/19 A2988 RMK A01 T02670191  RH  063%=      5-min Rain = 0
KWE1 270111Z 15011KT 27/19 A2988 RMK A01 T02670191  RH  063%=      5-min Rain = 0
KWE1 270112Z 15010KT 27/19 A2988 RMK A01 T02660191  RH  063%=      5-min Rain = 0
KWE1 270113Z 15011KT 27/19 A2988 RMK A01 T02660192  RH  064%=      5-min Rain = 0
KWE1 270114Z 15011KT 27/19 A2988 RMK A01 T02660192  RH  064%=      5-min Rain = 0
KWE1 270115Z 15012KT 27/19 A2988 RMK A01 T02650191  RH  064%=      5-min Rain = 0
KWE1 270116Z 15011KT 27/19 A2988 RMK A01 T02650191  RH  064%=      5-min Rain = 0
KWE1 270117Z 15012KT 27/19 A2987 RMK A01 T02650191  RH  064%=      5-min Rain = 0
KWE1 270118Z 15011KT 27/19 A2987 RMK A01 T02650191  RH  064%=      5-min Rain = 0
KWE1 270119Z 15011KT 27/19 A2987 RMK A01 T02650191  RH  064%=      5-min Rain = 0
KWE1 270120Z 15010KT 26/19 A2987 RMK A01 T02640191  RH  064%=      5-min Rain = 0
KWE1 270121Z 15010KT 26/19 A2987 RMK A01 T02640191  RH  064%=      5-min Rain = 0
KWE1 270122Z 15011KT 26/19 A2987 RMK A01 T02640192  RH  065%=      5-min Rain = 0
KWE1 270123Z 15010KT 26/19 A2987 RMK A01 T02630192  RH  065%=      5-min Rain = 0
KWE1 270124Z 15009KT 26/19 A2987 RMK A01 T02630192  RH  065%=      5-min Rain = 0
KWE1 270125Z 15010KT 26/19 A2987 RMK A01 T02620192  RH  065%=      5-min Rain = 0
KWE1 270126Z 15010KT 26/19 A2988 RMK A01 T02620192  RH  065%=      5-min Rain = 0
KWE1 270127Z 15010KT 26/19 A2988 RMK A01 T02610192  RH  065%=      5-min Rain = 0
KWE1 270128Z 16010KT 26/19 A2988 RMK A01 T02620191  RH  065%=      5-min Rain = 0
KWE1 270129Z 15009KT 26/19 A2988 RMK A01 T02620191  RH  065%=      5-min Rain = 0
KWE1 270130Z 15009KT 26/19 A2988 RMK A01 T02620192  RH  066%=      5-min Rain = 0
KWE1 270131Z 15009KT 26/19 A2988 RMK A01 T02620192  RH  065%=      5-min Rain = 0
KWE1 270132Z 15009KT 26/19 A2987 RMK A01 T02610192  RH  066%=      5-min Rain = 0
KWE1 270133Z 15010KT 26/19 A2987 RMK A01 T02610192  RH  066%=      5-min Rain = 0
KWE1 270134Z 14010KT 26/19 A2987 RMK A01 T02610193  RH  066%=      5-min Rain = 0
KWE1 270135Z 15010KT 26/19 A2987 RMK A01 T02600193  RH  066%=      5-min Rain = 0
KWE1 270136Z 14010KT 26/19 A2987 RMK A01 T02600193  RH  067%=      5-min Rain = 0
KWE1 270137Z 15011KT 26/19 A2987 RMK A01 T02590193  RH  067%=      5-min Rain = 0
KWE1 270138Z 15010KT 26/19 A2987 RMK A01 T02590192  RH  067%=      5-min Rain = 0
KWE1 270139Z 14011KT 26/19 A2987 RMK A01 T02590192  RH  067%=      5-min Rain = 0
KWE1 270140Z 15011KT 26/19 A2987 RMK A01 T02590192  RH  066%=      5-min Rain = 0
KWE1 270141Z 15010KT 26/19 A2987 RMK A01 T02600192  RH  066%=      5-min Rain = 0
KWE1 270142Z 15010KT 26/19 A2987 RMK A01 T02600193  RH  067%=      5-min Rain = 0
KWE1 270143Z 14010KT 26/19 A2987 RMK A01 T02590193  RH  067%=      5-min Rain = 0
KWE1 270144Z 14010KT 26/19 A2987 RMK A01 T02580192  RH  067%=      5-min Rain = 0
KWE1 270145Z 15010KT 26/19 A2987 RMK A01 T02590192  RH  067%=      5-min Rain = 0
KWE1 270146Z 15013KT 26/19 A2987 RMK A01 T02590192  RH  067%=      5-min Rain = 0
KWE1 270147Z 15011KT 26/19 A2987 RMK A01 T02590192  RH  066%=      5-min Rain = 0
KWE1 270148Z 15011KT 26/19 A2986 RMK A01 T02590191  RH  066%=      5-min Rain = 0
KWE1 270149Z 15011KT 26/19 A2986 RMK A01 T02590192  RH  067%=      5-min Rain = 0
KWE1 270150Z 15011KT 26/19 A2986 RMK A01 T02590192  RH  067%=      5-min Rain = 0
KWE1 270151Z 15012KT 26/19 A2986 RMK A01 T02580192  RH  067%=      5-min Rain = 0
KWE1 270152Z 15012KT 26/19 A2986 RMK A01 T02580192  RH  067%=      5-min Rain = 0
KWE1 270153Z 15013KT 26/19 A2986 RMK A01 T02580191  RH  066%=      5-min Rain = 0
KWE1 270154Z 15012KT 26/19 A2986 RMK A01 T02590191  RH  066%=      5-min Rain = 0
KWE1 270155Z 15012KT 26/19 A2986 RMK A01 T02590192  RH  066%=      5-min Rain = 0
KWE1 270156Z 15012KT 26/19 A2986 RMK A01 T02580192  RH  067%=      5-min Rain = 0
KWE1 270157Z 15013KT 26/19 A2986 RMK A01 T02580192  RH  067%=      5-min Rain = 0
KWE1 270158Z 15012KT 26/19 A2986 RMK A01 T02580191  RH  067%=      5-min Rain = 0
KWE1 270159Z 15013KT 26/19 A2985 RMK A01 T02580191  RH  067%=      5-min Rain = 0
KWE1 270200Z 15013KT 26/19 A2985 RMK A01 T02580191  RH  067%=      5-min Rain = 0
KWE1 270201Z 15014KT 26/19 A2985 RMK A01 T02580191  RH  066%=      5-min Rain = 0
KWE1 270202Z 15015KT 26/19 A2985 RMK A01 T02580190  RH  066%=      5-min Rain = 0
KWE1 270203Z 15013KT 26/19 A2985 RMK A01 T02580190  RH  066%=      5-min Rain = 0
KWE1 270204Z 14014KT 26/19 A2985 RMK A01 T02580190  RH  066%=      5-min Rain = 0
KWE1 270205Z 14016KT 26/19 A2985 RMK A01 T02580190  RH  066%=      5-min Rain = 0
KWE1 270206Z 14016KT 26/19 A2985 RMK A01 T02580189  RH  066%=      5-min Rain = 0
KWE1 270207Z 14015KT 26/19 A2985 RMK A01 T02590190  RH  066%=      5-min Rain = 0
KWE1 270208Z 14016G21KT 26/19 A2985 RMK A01 T02590190  RH  066%=      5-min Rain = 0
KWE1 270209Z 14014KT 26/19 A2984 RMK A01 T02580190  RH  066%=      5-min Rain = 0
KWE1 270210Z 14015KT 26/19 A2984 RMK A01 T02580190  RH  066%=      5-min Rain = 0
KWE1 270211Z 14014KT 26/19 A2984 RMK A01 T02580190  RH  066%=      5-min Rain = 0
KWE1 270212Z 14013KT 26/19 A2984 RMK A01 T02580191  RH  067%=      5-min Rain = 0
KWE1 270213Z 14014KT 26/19 A2984 RMK A01 T02560190  RH  067%=      5-min Rain = 0
KWE1 270214Z 14013KT 26/19 A2984 RMK A01 T02560191  RH  067%=      5-min Rain = 0
KWE1 270215Z 14016KT 26/19 A2984 RMK A01 T02560191  RH  067%=      5-min Rain = 0
KWE1 270216Z 14014KT 26/19 A2984 RMK A01 T02560190  RH  067%=      5-min Rain = 0
KWE1 270217Z 14013KT 26/19 A2984 RMK A01 T02560191  RH  067%=      5-min Rain = 0
KWE1 270218Z 14015KT 26/19 A2984 RMK A01 T02560190  RH  067%=      5-min Rain = 0
KWE1 270219Z 14015KT 26/19 A2984 RMK A01 T02560190  RH  067%=      5-min Rain = 0
KWE1 270220Z 14017KT 26/19 A2984 RMK A01 T02560190  RH  067%=      5-min Rain = 0
KWE1 270221Z 14016KT 26/19 A2984 RMK A01 T02570190  RH  067%=      5-min Rain = 0
KWE1 270222Z 14014KT 26/19 A2984 RMK A01 T02560190  RH  067%=      5-min Rain = 0
KWE1 270223Z 14015KT 26/19 A2984 RMK A01 T02560190  RH  067%=      5-min Rain = 0
KWE1 270224Z 14014KT 26/19 A2984 RMK A01 T02560190  RH  067%=      5-min Rain = 0
KWE1 270225Z 14014KT 26/19 A2984 RMK A01 T02560190  RH  067%=      5-min Rain = 0
KWE1 270226Z 14015KT 26/19 A2984 RMK A01 T02550190  RH  067%=      5-min Rain = 0
KWE1 270227Z 14016KT 26/19 A2984 RMK A01 T02560190  RH  067%=      5-min Rain = 0
KWE1 270228Z 14016KT 26/19 A2984 RMK A01 T02560189  RH  067%=      5-min Rain = 0
KWE1 270229Z 14014KT 26/19 A2984 RMK A01 T02560190  RH  067%=      5-min Rain = 0
KWE1 270230Z 14015KT 26/19 A2984 RMK A01 T02560190  RH  067%=      5-min Rain = 0
KWE1 270231Z 14016KT 26/19 A2984 RMK A01 T02560189  RH  067%=      5-min Rain = 0
KWE1 270232Z 14015G20KT 26/19 A2984 RMK A01 T02550189  RH  067%=      5-min Rain = 0
KWE1 270233Z 14015KT 26/19 A2984 RMK A01 T02560189  RH  067%=      5-min Rain = 0
KWE1 270234Z 15014G20KT 26/19 A2983 RMK A01 T02560190  RH  067%=      5-min Rain = 0
KWE1 270235Z 14017KT 26/19 A2983 RMK A01 T02550189  RH  067%=      5-min Rain = 0
KWE1 270236Z 14016KT 26/19 A2983 RMK A01 T02560189  RH  067%=      5-min Rain = 0
KWE1 270237Z 15017KT 26/19 A2983 RMK A01 T02560189  RH  066%=      5-min Rain = 0
KWE1 270238Z 15016KT 26/19 A2983 RMK A01 T02560189  RH  066%=      5-min Rain = 0
KWE1 270239Z 15015KT 26/19 A2983 RMK A01 T02570189  RH  066%=      5-min Rain = 0
KWE1 270240Z 14016KT 26/19 A2983 RMK A01 T02560189  RH  067%=      5-min Rain = 0
KWE1 270241Z 15019KT 26/19 A2983 RMK A01 T02560189  RH  067%=      5-min Rain = 0
KWE1 270242Z 15018KT 26/19 A2983 RMK A01 T02560188  RH  066%=      5-min Rain = 0
KWE1 270243Z 15016KT 26/19 A2983 RMK A01 T02560188  RH  066%=      5-min Rain = 0
KWE1 270244Z 14016KT 26/19 A2983 RMK A01 T02560188  RH  066%=      5-min Rain = 0
KWE1 270245Z 15017KT 26/19 A2983 RMK A01 T02560189  RH  066%=      5-min Rain = 0
KWE1 270246Z 15017KT 26/19 A2983 RMK A01 T02560188  RH  066%=      5-min Rain = 0
KWE1 270247Z 15017KT 26/19 A2983 RMK A01 T02550188  RH  066%=      5-min Rain = 0
KWE1 270248Z 15017KT 26/19 A2983 RMK A01 T02560188  RH  066%=      5-min Rain = 0
KWE1 270249Z 15016G22KT 26/19 A2983 RMK A01 T02560188  RH  066%=      5-min Rain = 0
KWE1 270250Z 15017KT 26/19 A2983 RMK A01 T02550188  RH  066%=      5-min Rain = 0
KWE1 270251Z 15015KT 26/19 A2983 RMK A01 T02560188  RH  066%=      5-min Rain = 0
KWE1 270252Z 15016KT 26/19 A2983 RMK A01 T02550188  RH  066%=      5-min Rain = 0
KWE1 270253Z 15016KT 26/19 A2983 RMK A01 T02550188  RH  067%=      5-min Rain = 0
KWE1 270254Z 15014KT 26/19 A2984 RMK A01 T02550188  RH  067%=      5-min Rain = 0
KWE1 270255Z 15017KT 25/19 A2984 RMK A01 T02540188  RH  066%=      5-min Rain = 0
KWE1 270256Z 16015G21KT 26/19 A2984 RMK A01 T02550187  RH  066%=      5-min Rain = 0
KWE1 270257Z 16018KT 26/19 A2984 RMK A01 T02550187  RH  066%=      5-min Rain = 0
KWE1 270258Z 15016KT 26/19 A2984 RMK A01 T02550187  RH  066%=      5-min Rain = 0
KWE1 270259Z 15017KT 26/19 A2984 RMK A01 T02560187  RH  066%=      5-min Rain = 0
KWE1 270300Z 15017KT 26/19 A2984 RMK A01 T02550187  RH  066%=      5-min Rain = 0
KWE1 270301Z 15016KT 26/19 A2984 RMK A01 T02560186  RH  066%=      5-min Rain = 0
KWE1 270302Z 15014KT 26/19 A2984 RMK A01 T02560187  RH  066%=      5-min Rain = 0
KWE1 270303Z 16017KT 26/19 A2984 RMK A01 T02550187  RH  066%=      5-min Rain = 0
KWE1 270304Z 16016G22KT 26/19 A2984 RMK A01 T02550187  RH  066%=      5-min Rain = 0
KWE1 270305Z 15016G21KT 26/19 A2984 RMK A01 T02550187  RH  066%=      5-min Rain = 0
KWE1 270306Z 15017KT 26/19 A2984 RMK A01 T02550187  RH  066%=      5-min Rain = 0
KWE1 270307Z 15014KT 26/19 A2984 RMK A01 T02550186  RH  066%=      5-min Rain = 0
KWE1 270308Z 15015KT 26/19 A2985 RMK A01 T02550187  RH  066%=      5-min Rain = 0
KWE1 270309Z 16015KT 26/19 A2985 RMK A01 T02550187  RH  066%=      5-min Rain = 0
KWE1 270310Z 16017KT 25/19 A2985 RMK A01 T02540186  RH  066%=      5-min Rain = 0
KWE1 270311Z 16015KT 26/19 A2985 RMK A01 T02550186  RH  066%=      5-min Rain = 0
KWE1 270312Z 16016KT 26/19 A2985 RMK A01 T02550186  RH  066%=      5-min Rain = 0
KWE1 270313Z 16016KT 25/19 A2985 RMK A01 T02540186  RH  066%=      5-min Rain = 0
KWE1 270314Z 16016KT 26/19 A2985 RMK A01 T02550185  RH  065%=      5-min Rain = 0
KWE1 270315Z 16018KT 26/19 A2985 RMK A01 T02550185  RH  065%=      5-min Rain = 0
KWE1 270316Z 16015KT 26/19 A2986 RMK A01 T02560185  RH  065%=      5-min Rain = 0
KWE1 270317Z 16016KT 26/19 A2986 RMK A01 T02550185  RH  065%=      5-min Rain = 0
KWE1 270318Z 16015KT 26/19 A2986 RMK A01 T02560185  RH  065%=      5-min Rain = 0
KWE1 270319Z 16014KT 26/19 A2986 RMK A01 T02550185  RH  065%=      5-min Rain = 0
KWE1 270320Z 16014KT 26/19 A2986 RMK A01 T02550185  RH  065%=      5-min Rain = 0
KWE1 270321Z 16015KT 26/19 A2986 RMK A01 T02550185  RH  065%=      5-min Rain = 0
KWE1 270322Z 15016KT 25/19 A2986 RMK A01 T02540185  RH  065%=      5-min Rain = 0
KWE1 270323Z 16017KT 25/19 A2986 RMK A01 T02540185  RH  065%=      5-min Rain = 0
KWE1 270324Z 15015KT 26/18 A2986 RMK A01 T02550184  RH  065%=      5-min Rain = 0
KWE1 270325Z 15015KT 26/19 A2986 RMK A01 T02550185  RH  065%=      5-min Rain = 0
KWE1 270326Z 15016G21KT 26/19 A2986 RMK A01 T02550185  RH  065%=      5-min Rain = 0
KWE1 270327Z 15014KT 26/19 A2986 RMK A01 T02550185  RH  065%=      5-min Rain = 0
KWE1 270328Z 16016KT 26/19 A2986 RMK A01 T02550185  RH  065%=      5-min Rain = 0
KWE1 270329Z 15013KT 26/19 A2986 RMK A01 T02550185  RH  065%=      5-min Rain = 0
KWE1 270330Z 15013G18KT 26/19 A2986 RMK A01 T02550185  RH  065%=      5-min Rain = 0
KWE1 270331Z 15013KT 25/19 A2986 RMK A01 T02540185  RH  066%=      5-min Rain = 0
KWE1 270332Z 16014KT 25/19 A2986 RMK A01 T02530185  RH  066%=      5-min Rain = 0
KWE1 270333Z 15013KT 25/18 A2986 RMK A01 T02530184  RH  066%=      5-min Rain = 0
KWE1 270334Z 15011KT 25/19 A2986 RMK A01 T02530185  RH  066%=      5-min Rain = 0
KWE1 270335Z 15013KT 25/19 A2986 RMK A01 T02530185  RH  066%=      5-min Rain = 0
KWE1 270336Z 15012KT 25/19 A2986 RMK A01 T02530185  RH  066%=      5-min Rain = 0
KWE1 270337Z 15013KT 25/19 A2986 RMK A01 T02520185  RH  066%=      5-min Rain = 0
KWE1 270338Z 15014KT 25/18 A2986 RMK A01 T02520184  RH  066%=      5-min Rain = 0
KWE1 270339Z 15012KT 25/18 A2986 RMK A01 T02520184  RH  066%=      5-min Rain = 0
KWE1 270340Z 15012KT 25/19 A2986 RMK A01 T02510185  RH  066%=      5-min Rain = 0
KWE1 270341Z 15014KT 25/18 A2986 RMK A01 T02510184  RH  067%=      5-min Rain = 0
KWE1 270342Z 15014KT 25/18 A2986 RMK A01 T02510184  RH  066%=      5-min Rain = 0
KWE1 270343Z 15012G18KT 25/18 A2986 RMK A01 T02510184  RH  066%=      5-min Rain = 0
KWE1 270344Z 15010KT 25/19 A2986 RMK A01 T02510185  RH  067%=      5-min Rain = 0
KWE1 270345Z 15012G17KT 25/18 A2986 RMK A01 T02500184  RH  067%=      5-min Rain = 0
KWE1 270346Z 14011KT 25/18 A2986 RMK A01 T02500184  RH  067%=      5-min Rain = 0
KWE1 270347Z 15011KT 25/19 A2986 RMK A01 T02500185  RH  067%=      5-min Rain = 0
KWE1 270348Z 15011KT 25/19 A2986 RMK A01 T02500185  RH  067%=      5-min Rain = 0
KWE1 270349Z 15011KT 25/19 A2986 RMK A01 T02490185  RH  068%=      5-min Rain = 0
KWE1 270350Z 15012KT 25/18 A2986 RMK A01 T02480184  RH  068%=      5-min Rain = 0
KWE1 270351Z 15010KT 25/19 A2986 RMK A01 T02480185  RH  068%=      5-min Rain = 0
KWE1 270352Z 15010KT 25/19 A2987 RMK A01 T02480185  RH  068%=      5-min Rain = 0
KWE1 270353Z 15009KT 25/19 A2987 RMK A01 T02470185  RH  068%=      5-min Rain = 0
KWE1 270354Z 15011KT 25/19 A2987 RMK A01 T02470185  RH  068%=      5-min Rain = 0
KWE1 270355Z 15012KT 25/19 A2987 RMK A01 T02470185  RH  068%=      5-min Rain = 0
KWE1 270356Z 14011KT 25/18 A2987 RMK A01 T02460184  RH  068%=      5-min Rain = 0
KWE1 270357Z 15011KT 25/18 A2987 RMK A01 T02470184  RH  068%=      5-min Rain = 0
KWE1 270358Z 15011KT 25/18 A2987 RMK A01 T02470184  RH  068%=      5-min Rain = 0
KWE1 270359Z 15010KT 25/18 A2987 RMK A01 T02470184  RH  068%=      5-min Rain = 0
KWE1 270400Z 15011KT 25/18 A2987 RMK A01 T02470184  RH  068%=      5-min Rain = 0
KWE1 270401Z 15011KT 25/18 A2987 RMK A01 T02470184  RH  068%=      5-min Rain = 0
KWE1 270402Z 15010KT 25/18 A2987 RMK A01 T02470184  RH  068%=      5-min Rain = 0
KWE1 270403Z 15011G16KT 25/19 A2987 RMK A01 T02470185  RH  068%=      5-min Rain = 0
KWE1 270404Z 15011KT 25/18 A2987 RMK A01 T02470184  RH  068%=      5-min Rain = 0
KWE1 270405Z 15012KT 25/18 A2987 RMK A01 T02470184  RH  068%=      5-min Rain = 0
KWE1 270406Z 15014KT 25/18 A2987 RMK A01 T02470183  RH  067%=      5-min Rain = 0
KWE1 270407Z 15012KT 25/18 A2987 RMK A01 T02480184  RH  067%=      5-min Rain = 0
KWE1 270408Z 15013KT 25/18 A2987 RMK A01 T02480184  RH  067%=      5-min Rain = 0
KWE1 270409Z 15011KT 25/18 A2987 RMK A01 T02480184  RH  068%=      5-min Rain = 0
KWE1 270410Z 15011KT 25/18 A2987 RMK A01 T02470184  RH  068%=      5-min Rain = 0
KWE1 270411Z 15011KT 25/18 A2987 RMK A01 T02470184  RH  068%=      5-min Rain = 0
KWE1 270412Z 15010KT 25/18 A2987 RMK A01 T02460184  RH  068%=      5-min Rain = 0
KWE1 270413Z 15012KT 25/18 A2987 RMK A01 T02460184  RH  068%=      5-min Rain = 0
KWE1 270414Z 15013KT 25/18 A2987 RMK A01 T02460183  RH  068%=      5-min Rain = 0
KWE1 270415Z 15012KT 25/18 A2987 RMK A01 T02460183  RH  068%=      5-min Rain = 0
KWE1 270416Z 15013KT 25/18 A2987 RMK A01 T02470183  RH  068%=      5-min Rain = 0
KWE1 270417Z 16013KT 25/18 A2987 RMK A01 T02480183  RH  067%=      5-min Rain = 0
KWE1 270418Z 15011KT 25/18 A2987 RMK A01 T02480183  RH  067%=      5-min Rain = 0
KWE1 270419Z 15009KT 25/18 A2987 RMK A01 T02470184  RH  068%=      5-min Rain = 0
KWE1 270420Z 15009KT 25/18 A2987 RMK A01 T02460184  RH  068%=      5-min Rain = 0
KWE1 270421Z 15009KT 25/18 A2987 RMK A01 T02450184  RH  069%=      5-min Rain = 0
KWE1 270422Z 15009KT 24/18 A2987 RMK A01 T02440184  RH  069%=      5-min Rain = 0
KWE1 270423Z 15010KT 24/19 A2987 RMK A01 T02430185  RH  070%=      5-min Rain = 0
KWE1 270424Z 15010KT 24/18 A2987 RMK A01 T02420184  RH  070%=      5-min Rain = 0
KWE1 270425Z 15010KT 24/18 A2987 RMK A01 T02420184  RH  070%=      5-min Rain = 0
KWE1 270426Z 15010KT 24/18 A2987 RMK A01 T02420184  RH  070%=      5-min Rain = 0
KWE1 270427Z 14010KT 24/18 A2987 RMK A01 T02420184  RH  070%=      5-min Rain = 0
KWE1 270428Z 15012KT 24/18 A2987 RMK A01 T02420184  RH  070%=      5-min Rain = 0
KWE1 270429Z 15011KT 24/18 A2987 RMK A01 T02420184  RH  070%=      5-min Rain = 0
KWE1 270430Z 15011KT 24/18 A2987 RMK A01 T02420184  RH  070%=      5-min Rain = 0
KWE1 270431Z 15010KT 24/18 A2987 RMK A01 T02420184  RH  070%=      5-min Rain = 0
KWE1 270432Z 15011KT 24/18 A2987 RMK A01 T02420184  RH  070%=      5-min Rain = 0
KWE1 270433Z 15011KT 24/18 A2987 RMK A01 T02410184  RH  070%=      5-min Rain = 0
KWE1 270434Z 15011KT 24/18 A2987 RMK A01 T02410184  RH  070%=      5-min Rain = 0
KWE1 270435Z 15010KT 24/18 A2987 RMK A01 T02410184  RH  070%=      5-min Rain = 0
KWE1 270436Z 15010KT 24/18 A2987 RMK A01 T02410184  RH  070%=      5-min Rain = 0
KWE1 270437Z 15010KT 24/18 A2987 RMK A01 T02410184  RH  071%=      5-min Rain = 0
KWE1 270438Z 15012KT 24/18 A2987 RMK A01 T02410184  RH  071%=      5-min Rain = 0
KWE1 270439Z 15011KT 24/18 A2986 RMK A01 T02410184  RH  071%=      5-min Rain = 0
KWE1 270440Z 15009KT 24/18 A2986 RMK A01 T02410184  RH  071%=      5-min Rain = 0
KWE1 270441Z 15010KT 24/18 A2986 RMK A01 T02400184  RH  071%=      5-min Rain = 0
KWE1 270442Z 15010KT 24/18 A2986 RMK A01 T02400184  RH  071%=      5-min Rain = 0
KWE1 270443Z 15012KT 24/18 A2986 RMK A01 T02400184  RH  071%=      5-min Rain = 0
KWE1 270444Z 15010KT 24/18 A2986 RMK A01 T02400184  RH  071%=      5-min Rain = 0
KWE1 270445Z 15009KT 24/18 A2986 RMK A01 T02400184  RH  071%=      5-min Rain = 0
KWE1 270446Z 15010KT 24/18 A2986 RMK A01 T02400184  RH  071%=      5-min Rain = 0
KWE1 270447Z 15010KT 24/18 A2986 RMK A01 T02400184  RH  071%=      5-min Rain = 0
KWE1 270448Z 14011KT 24/18 A2986 RMK A01 T02390184  RH  071%=      5-min Rain = 0
KWE1 270449Z 15011KT 24/18 A2986 RMK A01 T02390184  RH  071%=      5-min Rain = 0
KWE1 270450Z 15010KT 24/18 A2986 RMK A01 T02390184  RH  071%=      5-min Rain = 0
KWE1 270451Z 15011KT 24/18 A2986 RMK A01 T02390184  RH  071%=      5-min Rain = 0
KWE1 270452Z 15012KT 24/18 A2986 RMK A01 T02390184  RH  071%=      5-min Rain = 0
KWE1 270453Z 15011KT 24/18 A2986 RMK A01 T02400184  RH  071%=      5-min Rain = 0
KWE1 270454Z 15010KT 24/18 A2986 RMK A01 T02400183  RH  071%=      5-min Rain = 0
KWE1 270455Z 15010KT 24/18 A2986 RMK A01 T02400184  RH  071%=      5-min Rain = 0
KWE1 270456Z 15011KT 24/18 A2986 RMK A01 T02400184  RH  071%=      5-min Rain = 0
KWE1 270457Z 15011KT 24/18 A2986 RMK A01 T02390184  RH  071%=      5-min Rain = 0
KWE1 270458Z 15013KT 24/18 A2986 RMK A01 T02390184  RH  071%=      5-min Rain = 0
KWE1 270459Z 15013KT 24/18 A2986 RMK A01 T02390183  RH  071%=      5-min Rain = 0

Page generated in 0.1984 seconds.